GFSNGP_700_spd_072.txt.gz
Wind_Speed
25 27 23 16 23 28 30 31 26 18 19 17 9 5 7 9 8 7 2 3 3 6 7 12 15 14 14 19 25 25 23 21 21 20 22 25 26 25 25 26 26 26 27 28
25 23 18 18 13 14 17 24 25 18 16 10 9 6 5 6 7 11 6 10 6 13 8 5 11 20 19 16 16 23 24 24 24 24 23 24 27 30 31 31 30 30 30 30
9 7 10 10 11 12 11 11 9 11 10 13 6 1 5 11 13 17 19 22 15 15 15 16 19 12 16 22 26 21 20 24 27 29 28 26 25 28 30 31 30 30 29 30
9 13 4 9 12 11 4 9 14 9 11 9 10 4 1 4 5 3 6 17 27 25 22 22 19 22 25 27 25 25 24 25 26 29 32 33 33 31 30 31 31 29 29 30
4 7 10 5 4 8 27 11 13 13 12 8 7 10 13 6 5 7 11 14 11 15 21 24 22 22 19 18 17 25 23 27 29 28 31 34 36 33 37 39 38 37 37 38
8 5 1 5 7 7 16 11 5 6 9 10 12 14 3 7 7 11 13 17 20 16 13 16 27 27 28 27 25 23 21 23 27 29 30 32 38 40 42 46 46 47 47 48
17 7 5 3 6 5 2 5 5 4 5 4 6 3 9 10 7 2 6 17 19 24 21 20 18 19 22 32 36 38 39 37 32 32 31 34 31 32 46 50 58 52 57 56
17 11 7 7 5 5 7 11 9 9 5 6 8 10 12 13 17 19 24 24 22 24 23 23 25 27 26 24 24 27 32 40 41 37 44 47 40 43 44 43 47 51 49 50
15 19 7 6 12 17 10 10 7 6 6 8 11 14 15 19 19 19 21 22 20 21 20 22 23 23 26 28 30 32 31 28 28 33 37 41 49 48 44 43 43 43 42 46
12 14 14 15 14 13 9 4 4 7 11 13 16 17 18 20 19 19 21 22 23 24 25 27 26 26 26 26 28 29 29 32 35 35 30 30 35 40 42 42 44 45 45 47
8 11 10 13 9 4 4 8 11 14 17 19 19 19 19 18 19 20 21 22 23 25 27 27 27 27 28 28 27 27 27 26 27 31 30 31 28 33 38 41 45 46 48 49
8 8 10 6 2 7 11 15 18 19 21 22 20 20 21 20 21 22 23 24 25 26 25 26 28 30 32 33 32 30 28 27 29 29 24 22 27 31 37 45 42 36 43 51
4 5 9 12 13 15 18 17 20 20 18 19 19 20 21 21 22 24 25 25 25 27 29 30 31 33 36 37 38 36 32 31 32 23 27 36 38 38 26 28 29 22 26 30
8 14 18 12 15 16 17 19 21 21 19 19 21 22 22 25 26 27 27 26 26 28 29 31 30 28 27 30 32 31 26 26 29 28 25 25 22 25 24 30 31 31 28 23
15 18 16 21 19 17 18 20 21 21 22 23 23 24 25 26 26 26 25 25 24 26 27 29 28 28 25 22 22 23 25 27 27 24 22 22 23 23 23 24 24 22 21 18
20 22 22 22 21 21 23 24 26 27 27 27 27 27 28 28 27 27 26 25 25 23 23 22 22 20 17 16 15 21 20 22 19 17 15 15 13 13 13 14 15 14 13 12
20 20 20 21 25 25 23 27 30 31 31 29 29 29 30 29 28 27 26 25 23 22 20 19 20 21 21 17 15 13 13 14 13 12 13 13 13 13 14 14 14 16 17 17
24 22 22 24 27 29 28 27 27 28 28 28 28 28 27 26 24 22 20 19 17 16 16 16 16 17 16 15 13 10 10 10 10 11 11 12 14 15 15 16 17 19 20 21
23 24 23 23 22 23 23 22 22 22 22 21 20 19 18 17 17 15 14 13 12 12 13 12 11 10 9 8 8 8 9 11 12 13 14 15 17 18 19 20 21 23 24 25
18 18 18 18 18 17 18 17 17 15 14 13 12 11 10 10 9 9 9 8 7 7 6 6 7 9 11 12 14 15 16 17 18 18 19 20 21 22 22 23 23 23 23 23
12 12 12 11 11 10 9 8 7 7 6 6 6 6 5 5 5 5 6 7 8 10 11 11 13 14 15 17 18 19 19 20 20 21 21 21 21 21 21 21 21 21 21 21
5 5 4 4 4 4 4 3 2 2 1 2 2 3 5 6 8 10 10 10 11 13 15 17 17 18 18 19 20 20 20 21 21 21 21 21 21 21 21 20 20 20 20 20
6 6 6 5 5 4 3 3 3 4 5 7 9 11 11 11 11 12 14 15 17 18 18 19 19 19 20 20 20 20 20 20 20 20 19 20 20 20 20 21 21 21 22 23
5 5 5 5 6 7 9 10 11 12 12 13 14 15 15 15 16 17 17 17 17 17 17 17 17 17 17 17 16 16 17 17 17 18 19 20 21 21 22 23 23 23 24 24
8 9 10 11 12 13 14 15 16 16 17 17 17 18 18 18 18 18 18 18 17 17 16 15 15 15 14 15 16 16 17 18 19 20 21 21 22 23 23 24 25 25 26 26
11 13 15 16 18 19 19 20 21 20 20 19 19 19 19 19 19 18 17 16 15 14 13 13 13 13 15 16 17 18 19 20 21 22 23 24 24 25 26 26 27 27 27 27
16 18 19 20 20 20 21 21 22 22 21 22 21 20 19 18 16 15 14 13 13 12 12 13 14 15 17 18 20 21 23 24 24 26 26 27 27 28 28 28 29 29 28 28

GFSNGP_700_spd_075.txt.gz
Wind_Speed
21 23 20 21 23 21 37 42 11 11 17 13 15 7 6 9 15 20 17 13 18 13 12 19 10 9 6 6 8 18 22 20 17 17 19 21 21 20 21 22 23 23 23 24
23 18 24 27 25 27 23 40 34 28 21 17 11 12 6 10 15 15 15 12 14 13 8 4 15 23 18 15 11 10 10 19 23 22 20 22 25 27 27 28 28 29 29 28
6 15 18 16 15 13 21 20 30 20 12 12 10 11 10 10 12 15 14 12 10 12 17 12 10 8 17 22 24 21 17 14 14 17 22 28 28 27 26 28 31 32 34 34
13 16 4 7 5 2 8 10 9 11 10 14 21 23 17 9 6 12 15 16 16 20 20 20 20 18 19 21 23 23 24 27 28 27 23 23 27 30 31 32 32 32 32 35
5 11 16 5 4 11 15 10 9 10 16 12 18 20 15 14 10 5 9 12 8 9 22 28 22 23 23 18 18 25 27 28 31 31 30 29 31 31 30 34 36 34 32 38
8 5 3 8 10 11 13 6 9 17 12 17 14 14 17 14 7 3 8 10 11 7 11 12 19 23 26 27 22 22 24 26 26 26 25 27 30 32 36 35 34 35 38 42
17 6 10 10 8 4 5 8 13 13 12 11 14 6 3 3 3 9 16 20 19 14 13 14 16 18 18 20 30 35 34 30 30 34 34 36 35 37 37 37 34 32 36 39
21 7 8 8 11 5 11 15 13 8 9 4 3 0 5 8 9 9 13 19 21 17 14 13 12 12 12 14 17 20 25 27 28 28 31 36 39 41 41 42 44 46 46 52
18 12 6 8 7 10 19 12 11 6 5 4 4 8 9 13 16 16 17 17 20 17 17 17 18 19 19 17 16 17 18 20 23 29 33 34 33 39 49 48 47 48 50 50
13 12 16 17 22 18 13 7 6 3 3 4 7 10 12 13 15 16 17 16 17 17 18 21 23 24 24 24 25 24 23 24 25 26 27 28 30 33 34 34 38 41 44 49
10 18 29 22 18 12 6 4 1 3 7 10 12 13 13 13 14 15 16 16 17 19 20 20 21 23 24 26 27 28 29 29 29 29 28 28 30 32 33 34 36 37 39 43
12 13 19 12 12 8 6 7 9 10 11 13 14 15 15 15 15 16 17 18 19 20 22 23 24 26 28 29 32 33 34 35 34 34 34 29 28 27 28 31 35 34 36 31
16 4 8 10 8 6 8 9 9 10 11 10 12 14 14 16 16 17 19 20 21 22 23 25 26 28 29 29 30 30 32 31 30 30 28 24 24 26 26 25 20 21 19 22
5 2 8 9 6 11 12 10 10 11 11 12 14 16 18 20 21 22 23 23 23 22 22 23 25 25 26 27 28 28 26 24 22 22 23 25 25 23 24 25 27 27 24 19
9 11 13 13 12 13 15 15 15 16 17 18 19 20 20 21 23 23 24 24 23 23 22 22 22 21 21 20 20 22 23 24 23 21 19 19 18 18 18 18 19 18 15 13
10 13 16 16 16 16 17 20 21 21 21 24 25 25 24 24 24 24 24 24 23 23 22 20 19 18 18 18 18 20 19 19 19 16 14 12 12 12 13 13 13 13 14 14
16 16 17 18 16 17 20 21 22 25 26 25 25 24 24 23 23 22 21 20 19 18 18 17 16 16 17 17 17 17 16 15 14 12 12 12 12 12 12 12 12 13 13 14
18 17 16 18 20 21 21 22 22 21 21 21 22 21 20 19 18 17 16 16 15 15 14 15 16 15 14 13 12 11 10 10 9 9 10 11 14 16 17 18 19 18 18 18
20 20 20 20 18 17 18 18 19 19 18 17 16 16 15 14 13 13 13 13 13 13 12 11 10 9 9 9 10 11 12 13 13 15 16 17 18 19 20 21 22 22 23 23
15 15 15 15 15 14 14 14 14 13 12 11 11 10 10 9 9 9 9 9 8 8 8 9 10 11 12 12 14 15 16 17 17 18 18 19 20 20 21 21 21 21 22 21
10 10 10 10 9 9 8 7 7 7 7 6 6 6 6 6 6 7 8 9 10 11 11 12 13 14 16 17 17 18 18 19 19 19 19 19 20 20 20 20 20 21 21 21
6 6 7 8 8 8 8 8 7 7 7 7 7 7 8 10 12 13 13 13 13 14 16 17 17 18 18 18 18 18 18 18 18 18 18 18 18 18 18 18 19 20 20 20
6 7 7 7 7 7 7 7 8 9 10 12 13 14 14 15 15 15 16 16 16 18 18 18 19 19 19 18 18 17 17 17 17 17 18 18 18 19 20 20 21 22 23 23
6 7 8 8 9 10 11 13 14 15 15 16 17 18 17 16 17 19 19 18 19 19 18 18 17 17 17 16 15 16 15 15 17 17 18 19 20 20 21 23 24 24 25 25
9 11 12 13 14 15 17 18 18 17 18 18 18 19 20 20 19 19 19 19 18 18 17 16 15 14 13 14 14 14 16 17 18 19 19 20 21 21 22 24 24 25 25 26
13 15 17 19 20 20 21 22 21 20 21 20 19 20 20 20 20 19 19 18 17 15 14 14 12 12 12 13 14 15 16 18 20 21 22 23 24 24 25 26 27 28 28 28
18 19 19 18 18 20 21 22 23 21 22 23 21 20 19 19 18 17 16 15 14 13 12 11 12 13 13 15 17 20 22 23 23 25 26 27 27 27 28 28 28 28 29 29

GFSNGP_700_spd_078.txt.gz
Wind_Speed
12 17 20 26 27 25 29 26 14 20 20 13 20 2 13 17 17 19 20 20 24 25 22 19 17 15 12 10 8 7 11 17 17 17 17 18 17 17 17 19 19 19 20 21
14 8 11 20 28 31 31 29 29 34 20 16 11 21 5 11 13 15 19 20 17 17 12 12 19 15 14 12 10 10 10 12 14 15 16 18 20 23 24 24 25 25 26 27
7 18 25 20 13 18 26 26 26 36 38 30 14 21 18 11 17 16 17 20 19 15 10 5 6 6 10 16 19 19 19 19 18 17 17 16 17 17 19 22 27 29 30 32
13 19 4 5 14 13 10 12 16 24 20 20 27 23 25 22 15 20 19 15 17 16 14 15 15 15 16 18 17 18 17 19 22 24 25 25 25 23 24 24 22 22 26 31
6 9 21 16 11 2 8 10 25 25 19 32 28 27 24 15 18 13 11 11 13 16 14 14 12 15 18 20 21 22 24 26 29 27 28 29 29 30 30 31 30 27 26 27
9 5 4 10 19 6 10 4 16 21 21 25 28 27 22 14 7 5 6 5 4 4 7 10 15 20 25 28 20 18 17 20 23 25 26 28 27 26 28 29 34 33 31 34
24 12 13 19 25 9 2 9 16 20 22 25 19 19 17 10 4 0 1 4 7 8 9 13 14 13 13 15 18 21 23 25 29 31 30 32 35 35 34 35 38 40 40 37
21 13 12 10 12 4 11 19 13 11 18 16 9 10 10 4 2 4 7 8 9 11 10 10 9 9 9 10 12 14 14 17 21 25 30 33 31 33 37 42 44 43 43 43
15 13 17 14 14 6 4 4 12 7 8 5 7 4 3 3 4 5 8 10 12 12 12 12 13 13 14 15 16 16 18 19 19 19 20 19 21 25 29 33 34 36 41 45
15 11 17 12 18 12 12 19 16 12 8 5 2 1 3 7 9 11 11 11 13 14 14 14 15 15 15 16 17 18 19 20 21 23 25 26 28 28 29 28 27 29 32 35
19 17 26 20 19 17 19 12 8 6 2 2 3 4 7 8 10 11 11 12 12 13 14 14 15 17 17 19 21 22 24 25 26 27 29 30 32 33 32 32 31 29 29 30
12 8 19 19 12 12 9 7 3 2 1 2 4 6 8 9 9 10 10 12 13 13 14 15 16 18 20 21 23 25 27 28 29 29 29 31 31 30 30 30 29 28 27 27
17 12 12 11 8 7 6 3 2 3 4 4 5 6 7 9 11 13 14 16 17 18 19 19 19 20 21 22 23 24 26 28 30 30 31 30 28 27 27 28 28 28 28 28
7 6 7 4 2 3 3 2 3 4 7 8 9 9 11 12 14 15 17 19 20 21 21 21 22 22 23 23 23 24 24 24 25 25 26 27 28 28 28 26 24 22 21 19
2 3 4 4 6 7 7 8 8 10 12 14 14 14 16 17 19 20 21 21 21 21 22 23 23 23 23 23 22 21 21 20 21 22 23 23 23 21 20 19 17 16 15 14
8 9 9 10 9 8 9 10 12 15 16 17 18 19 20 20 20 20 19 19 20 21 21 21 22 22 21 21 21 21 22 21 20 19 18 18 18 18 17 16 15 15 15 14
12 13 13 10 10 12 13 15 17 17 18 17 19 20 19 19 18 18 19 19 20 20 19 19 19 19 19 19 19 17 17 17 17 16 15 15 15 14 14 14 14 15 16 17
13 14 16 16 17 18 17 16 16 16 16 17 17 17 17 17 16 16 16 16 17 16 16 16 16 16 16 15 14 14 13 12 13 14 14 15 16 17 17 18 19 20 21 21
11 11 12 12 13 13 14 15 14 13 13 13 13 13 13 12 12 12 12 13 13 13 12 12 12 12 12 12 13 14 14 14 14 15 16 17 19 20 21 22 23 23 22 22
9 9 9 8 8 9 9 9 10 10 10 10 10 10 10 10 10 10 10 10 10 11 11 12 13 14 14 14 15 16 17 18 18 19 19 19 20 20 21 21 21 21 21 21
7 6 6 6 7 7 8 8 9 9 9 8 8 8 8 8 9 10 11 13 13 14 15 15 16 16 17 17 18 18 19 19 19 20 20 20 21 21 20 20 20 20 19 19
3 4 5 5 6 6 7 7 8 8 8 9 10 11 13 14 15 15 15 16 16 17 17 17 18 18 19 19 19 19 19 19 19 19 19 19 18 19 20 20 21 20 21 21
2 2 3 4 6 7 8 9 11 12 13 14 15 16 17 17 18 18 18 19 19 19 19 19 20 20 20 19 19 18 18 18 17 17 17 18 19 19 20 21 22 22 22 23
3 5 6 8 10 12 13 14 15 16 17 18 18 18 19 20 21 20 21 21 21 21 21 20 20 19 18 18 17 16 15 15 16 16 17 18 19 21 22 23 23 24 25 25
9 11 12 13 14 16 17 18 17 18 18 19 19 21 21 21 21 22 21 20 21 21 21 19 19 18 17 15 14 15 16 16 16 18 20 21 22 23 24 25 26 26 27 27
13 16 18 20 21 22 22 22 22 22 21 21 21 21 21 21 21 21 21 21 19 18 18 18 17 15 15 15 15 15 16 18 20 22 22 23 23 24 25 25 24 24 23 23
18 19 19 20 21 22 22 22 22 22 22 21 21 21 22 21 21 20 18 17 17 17 16 16 16 16 16 15 16 18 19 21 23 23 23 23 23 22 21 20 20 20 20 20

GFSNGP_700_spd_084.txt.gz
Wind_Speed
2 9 11 13 15 19 26 25 19 35 33 29 23 21 18 21 15 9 12 21 30 32 33 32 30 27 27 28 26 22 20 18 17 16 14 12 11 10 11 11 12 12 13 14
10 10 10 20 24 20 11 16 26 30 37 29 21 14 15 24 8 8 13 19 26 32 33 32 29 27 26 22 19 19 18 19 19 19 18 16 15 15 15 15 15 16 17 18
2 11 19 17 11 12 24 22 24 28 27 23 16 18 19 15 5 12 12 17 23 27 29 31 23 18 20 19 19 16 15 14 14 16 18 18 17 17 19 19 19 20 22 24
9 12 2 3 12 23 22 28 26 28 32 23 20 22 19 17 13 12 18 15 16 19 20 19 20 22 21 21 22 20 16 13 17 15 15 14 14 16 18 18 16 16 18 19
2 4 16 14 10 22 29 38 28 22 25 23 24 23 20 14 17 11 20 23 25 24 23 23 24 25 21 20 18 15 13 13 13 14 22 24 24 26 25 24 26 27 26 27
7 3 3 5 19 24 27 24 20 23 10 22 32 32 26 19 18 24 15 22 21 22 20 17 15 15 15 13 12 12 13 15 17 20 23 21 19 21 22 25 26 28 32 37
17 9 9 17 14 17 12 13 24 3 21 33 35 31 26 25 20 18 15 19 16 16 14 9 8 8 9 9 11 13 15 15 16 19 21 23 26 29 30 30 31 30 29 31
6 7 8 9 10 11 20 12 10 2 8 13 24 23 19 17 16 14 10 8 10 12 7 4 6 8 9 10 12 13 14 16 15 16 17 18 19 21 22 22 24 26 28 29
10 6 12 16 16 16 19 12 9 16 20 19 19 19 19 19 17 14 11 8 5 3 1 4 7 8 10 12 13 15 16 16 17 18 20 21 22 23 24 25 26 28 29 30
14 14 16 14 14 14 17 7 6 10 12 13 16 16 13 10 9 7 4 2 3 4 4 6 9 10 12 14 16 17 17 18 20 21 21 21 22 22 23 24 25 25 26 27
7 7 8 13 9 4 6 6 4 3 5 7 7 8 8 10 6 3 1 1 1 1 3 5 8 8 9 11 12 14 15 17 18 19 19 20 21 23 24 25 26 27 28 29
3 10 5 8 8 7 1 2 3 3 4 3 2 2 2 1 1 1 1 2 3 4 4 5 6 7 8 9 11 13 14 15 16 18 19 19 20 20 21 22 23 24 25 25
10 9 7 9 7 6 6 6 3 4 2 1 2 2 1 1 2 3 3 5 6 8 9 9 9 10 12 13 15 16 17 18 19 20 20 20 20 20 20 20 20 21 21 22
7 7 5 2 1 0 0 1 4 6 5 5 5 5 5 5 6 7 8 9 10 12 13 14 15 15 15 16 16 17 18 18 18 19 19 19 20 20 20 21 20 20 20 20
2 1 1 3 6 8 8 7 8 10 10 10 10 10 10 10 11 11 12 13 13 14 15 16 16 17 17 17 18 18 18 18 19 19 19 19 19 20 20 20 20 20 20 19
5 7 7 8 9 9 9 9 10 10 10 11 12 12 13 14 13 14 13 13 13 14 14 15 16 17 18 18 18 18 18 18 18 18 18 18 18 18 18 18 19 19 19 19
6 7 8 8 9 10 10 10 12 11 11 11 10 11 11 11 12 13 14 14 15 15 16 17 17 18 18 18 18 17 17 17 17 17 17 17 17 18 18 19 19 20 20 21
6 7 8 8 9 10 10 10 10 9 9 9 10 10 10 10 11 12 13 14 15 15 16 16 16 16 16 15 15 16 16 16 17 17 17 18 19 19 20 20 21 22 22 23
6 6 5 6 7 7 7 6 6 6 6 6 7 8 8 9 10 10 11 11 12 13 13 13 13 14 14 15 15 16 16 17 17 18 19 19 20 21 22 22 23 23 23 23
4 5 5 4 3 2 1 1 2 3 4 5 6 7 9 10 12 12 14 14 15 16 16 16 16 17 17 17 18 18 19 19 20 21 21 22 23 23 23 23 23 23 23 23
0 1 2 3 3 2 3 4 5 7 9 10 12 13 14 15 16 17 18 19 20 20 21 21 21 21 21 21 21 21 21 22 22 22 22 22 22 22 22 22 22 22 22 21
3 4 4 4 5 6 8 10 11 13 15 16 18 19 20 21 21 22 22 23 23 24 24 24 24 24 24 24 24 24 24 23 23 23 23 23 22 21 21 20 20 20 20 21
3 5 7 9 11 12 13 15 16 18 19 20 21 22 23 23 23 24 24 24 24 24 24 24 24 24 24 24 24 24 23 23 23 22 22 21 20 19 19 19 21 22 23 24
7 10 13 15 16 17 18 19 21 22 23 24 24 25 25 25 25 25 25 25 25 24 24 24 24 23 23 23 22 22 21 21 20 20 19 19 19 20 21 23 24 24 25 25
12 13 15 16 18 19 20 21 22 22 23 23 24 25 25 26 26 25 25 25 25 24 24 23 23 22 22 21 21 20 20 19 19 19 19 20 21 22 23 24 24 24 24 23
13 15 17 19 20 22 22 22 22 22 23 23 23 24 24 24 24 24 24 24 24 23 23 22 21 21 20 20 20 19 19 19 19 19 20 21 22 23 23 23 23 22 21 21
16 18 20 21 22 22 23 23 22 22 22 22 23 22 23 22 21 21 20 20 19 20 20 20 20 20 20 19 18 18 19 19 20 21 22 23 23 23 23 23 22 21 21 21

GFSNGP_700_spd_087.txt.gz
Wind_Speed
6 2 2 4 7 7 15 21 12 29 23 27 23 20 20 16 21 15 12 9 12 26 28 33 32 31 28 27 26 24 21 19 16 14 11 10 9 9 10 10 10 10 11 11
3 3 5 11 14 14 9 7 17 20 30 18 20 23 17 17 20 14 11 12 12 23 30 35 34 32 29 27 28 26 24 22 20 18 15 12 10 10 9 9 9 10 11 12
4 3 9 7 4 4 12 16 18 25 26 28 26 18 16 18 19 18 14 11 13 19 28 32 32 30 28 26 25 24 23 22 20 20 19 17 16 15 15 16 16 16 17 17
3 3 1 4 12 8 14 17 24 27 23 22 20 25 19 19 20 19 14 16 13 17 21 28 30 27 28 28 19 16 14 16 17 18 19 17 16 16 16 16 15 16 17 18
1 2 6 6 4 14 22 26 23 25 31 23 27 20 19 19 18 9 6 20 20 19 21 23 30 30 33 32 27 26 30 20 19 20 20 20 19 18 17 19 19 20 21 22
2 2 2 3 11 18 20 11 29 33 27 15 21 21 25 23 18 13 12 8 23 24 26 28 29 31 30 28 30 27 26 21 19 19 17 16 17 17 17 18 21 22 25 29
3 2 7 13 15 10 7 15 23 24 16 7 30 28 24 24 20 18 19 13 12 20 19 21 25 27 26 25 24 23 18 18 18 19 21 21 22 26 29 28 28 27 26 29
3 4 4 5 8 14 7 15 15 18 21 11 12 19 19 18 17 16 14 13 13 10 14 15 16 14 11 9 10 13 14 11 11 15 16 16 18 20 21 23 25 28 30 31
4 5 9 14 15 17 10 13 5 12 17 17 19 19 18 16 15 14 12 10 10 11 11 11 11 9 9 9 7 9 10 10 12 14 14 14 16 17 19 20 22 23 25 26
5 5 11 12 12 15 9 3 4 8 10 11 11 12 13 14 13 13 13 13 10 7 6 4 5 3 4 8 10 11 12 13 14 15 16 18 19 20 20 20 21 22 24 25
8 5 1 7 4 2 6 6 4 6 7 8 10 10 11 10 10 10 10 8 7 5 3 2 3 4 7 8 10 11 11 13 12 14 15 16 16 18 18 20 21 22 23 24
4 3 2 5 7 8 7 4 5 8 7 7 7 5 5 5 5 5 4 3 1 1 2 3 4 6 6 6 7 8 9 11 13 14 15 15 16 17 19 20 21 22 24 24
8 8 4 4 6 6 7 6 6 7 7 7 6 5 4 3 2 2 1 1 2 3 4 5 6 7 9 10 11 13 15 15 16 17 17 18 20 21 21 21 22 23 24 25
6 4 5 5 5 5 4 4 3 3 5 6 6 5 5 4 4 5 6 7 7 7 7 8 9 10 11 12 13 14 16 16 17 18 19 19 20 21 22 22 22 23 23 24
3 3 5 6 7 8 8 7 7 8 8 8 8 9 10 9 8 8 8 9 9 10 11 11 12 12 12 13 13 13 14 15 16 17 18 19 19 19 20 21 21 21 21 20
3 6 9 10 10 9 9 9 10 9 9 10 10 9 9 9 8 9 9 9 10 10 11 12 13 14 15 15 16 16 16 16 17 17 17 17 18 18 19 19 19 18 18 18
4 7 8 9 10 11 10 9 9 10 10 10 9 9 8 8 8 9 10 11 12 13 13 13 14 14 15 16 16 16 16 17 16 16 17 17 17 17 17 17 17 18 18 19
5 6 6 6 8 8 7 7 7 7 7 7 8 8 8 8 8 8 9 9 10 11 12 13 14 15 15 15 16 16 16 16 17 17 17 17 17 18 18 19 19 20 20 21
4 4 5 6 6 6 7 7 7 7 7 6 6 6 7 9 10 12 13 13 14 15 15 16 16 17 17 17 17 18 18 18 18 19 19 20 20 21 21 22 22 22 22 22
5 6 6 6 5 4 4 4 5 5 7 8 10 11 12 13 14 15 16 17 18 19 20 20 20 20 20 20 20 20 21 21 21 21 22 22 22 23 23 23 23 23 23 23
3 3 2 2 3 4 6 8 9 10 12 13 14 15 17 18 18 19 20 21 22 22 23 23 22 22 22 22 22 22 22 22 22 22 22 22 22 22 22 22 22 22 22 22
2 1 1 1 4 6 8 10 12 13 15 16 18 19 20 21 22 22 23 23 23 23 23 23 23 23 23 23 23 23 22 22 22 21 21 21 21 21 20 20 20 20 20 21
3 1 4 6 8 9 11 13 15 17 19 20 21 22 22 22 22 22 22 22 22 22 22 21 21 21 21 21 21 21 21 21 21 20 20 20 19 19 19 19 19 20 21 22
3 6 8 11 13 15 17 18 19 21 21 22 22 22 22 22 22 22 22 22 22 22 22 22 21 21 21 20 20 19 19 19 19 19 18 18 18 18 19 20 20 21 22 23
7 10 12 14 16 18 20 21 21 21 22 22 22 22 23 23 22 22 21 21 20 20 19 19 19 19 19 19 19 18 18 18 18 18 18 18 18 19 20 21 21 22 22 22
12 15 17 19 21 22 22 22 22 22 22 23 23 22 22 22 21 21 20 19 18 18 18 17 17 17 17 17 17 17 17 17 17 17 18 18 19 20 21 21 21 21 21 21
15 18 20 21 22 22 21 21 21 22 22 22 22 21 21 20 20 19 19 19 19 20 20 20 20 19 19 18 18 17 17 18 18 19 19 20 21 22 22 23 22 22 22 22

GFSNGP_700_spd_090.txt.gz
Wind_Speed
11 10 8 8 8 9 10 8 8 12 17 19 20 18 23 24 19 17 16 12 15 18 32 31 33 32 35 30 27 24 23 20 18 16 13 12 12 15 17 16 16 15 14 14
6 4 4 4 5 8 10 10 10 16 15 15 17 23 21 20 17 19 15 9 12 15 15 23 32 39 37 34 29 27 28 25 21 18 16 15 15 14 14 14 14 16 17 17
4 2 5 4 2 0 2 6 11 18 17 22 20 20 19 20 19 18 16 10 12 15 17 21 29 35 35 31 28 28 27 26 24 22 20 18 17 17 17 17 18 18 19 20
3 2 2 5 3 3 6 6 12 20 19 27 29 28 22 20 23 19 18 13 19 17 19 23 26 31 32 29 28 28 28 26 24 23 22 21 20 19 18 18 18 18 20 19
2 2 1 4 3 7 11 12 14 26 27 19 18 15 15 20 19 16 15 17 13 22 21 23 26 30 31 31 28 27 26 26 24 24 23 22 22 21 21 21 20 20 21 21
1 1 1 2 7 9 9 3 23 28 28 12 15 15 18 16 15 8 11 9 9 18 23 25 31 32 32 32 31 30 26 25 20 19 22 24 23 24 23 22 21 22 23 25
2 2 1 5 6 10 4 10 18 22 25 9 11 20 18 16 12 9 9 6 3 4 14 23 29 32 30 32 34 38 42 35 28 23 24 21 21 21 20 20 19 19 19 21
1 3 2 3 14 11 9 10 9 15 20 15 6 8 7 7 8 8 8 11 11 6 10 12 14 14 19 24 31 29 30 25 25 27 20 18 17 17 20 23 24 23 26 28
2 2 9 12 14 13 10 9 3 9 14 16 17 15 14 11 10 9 10 9 7 9 9 5 9 7 11 14 15 14 13 12 16 13 12 13 14 15 17 18 18 19 21 23
2 4 6 7 10 12 5 1 6 7 9 10 12 12 11 10 10 10 11 10 9 8 5 2 5 1 4 10 5 6 8 7 7 10 12 15 17 19 20 21 22 23 24 25
6 4 1 6 4 2 5 6 6 7 7 7 9 9 10 9 9 9 9 8 10 9 7 8 8 9 7 5 2 1 2 4 7 9 10 12 14 16 17 18 19 19 20 21
5 4 2 2 3 4 5 5 4 5 8 9 9 7 7 7 7 7 7 7 6 6 5 4 4 4 5 5 4 3 3 7 11 12 13 16 16 16 15 16 17 19 20 21
7 8 5 4 5 5 5 6 6 7 7 7 6 4 4 3 3 2 2 4 3 3 3 3 5 5 6 6 6 7 9 10 11 12 12 13 15 15 16 17 19 20 21 22
7 5 4 4 4 4 4 4 4 5 6 6 6 7 7 6 6 6 6 5 5 5 5 6 6 7 8 8 9 10 10 11 12 13 14 15 16 16 17 18 19 20 20 21
3 2 4 6 6 7 6 5 4 5 6 6 7 8 9 9 8 8 9 9 9 8 8 7 7 8 8 9 10 11 12 13 14 15 16 17 18 19 19 20 20 20 20 21
4 5 5 6 7 8 8 7 7 6 5 5 6 7 7 8 8 8 8 8 8 8 9 9 10 10 11 11 11 12 12 13 13 14 15 16 18 18 19 19 20 20 21 21
4 5 6 7 6 6 6 6 6 6 6 6 6 6 6 6 7 7 7 7 7 8 8 9 10 10 10 11 12 13 13 13 14 15 16 16 17 18 18 19 20 20 21 21
5 6 6 6 6 6 6 5 5 4 5 5 6 6 6 6 7 7 8 9 9 10 10 11 12 12 13 14 15 15 16 16 17 17 17 17 18 19 19 19 20 20 21 22
3 4 5 5 5 6 7 6 6 6 6 6 6 7 8 10 12 13 14 16 17 18 18 18 18 19 20 20 20 20 20 20 21 21 21 22 22 22 22 23 23 24 24 24
3 4 4 5 5 5 4 5 6 6 8 10 11 13 14 16 17 18 20 20 21 22 23 24 25 25 24 24 24 24 24 24 24 24 25 25 25 25 25 25 25 26 26 26
2 3 2 2 3 5 6 7 9 11 12 14 16 17 19 20 22 23 24 25 25 25 25 25 25 25 25 25 25 24 24 24 24 24 24 25 25 25 25 26 26 26 26 26
1 1 2 4 6 8 10 12 14 16 17 19 21 22 23 24 25 25 25 25 25 24 25 25 25 25 25 25 25 25 25 24 24 24 24 24 24 24 24 24 24 23 23 23
2 1 4 7 9 11 13 15 17 19 21 22 23 23 23 23 22 22 22 22 23 23 23 23 23 23 23 24 24 24 24 24 24 24 24 23 23 22 22 21 21 21 22 22
3 5 7 9 12 14 17 19 20 21 22 22 21 21 21 21 21 21 21 21 21 21 21 21 21 22 22 22 23 23 23 23 23 23 22 22 21 21 21 21 21 22 22 23
5 8 10 13 15 17 19 20 20 21 21 21 21 21 21 22 22 21 20 20 19 19 18 18 17 17 17 18 18 19 19 20 20 20 20 20 20 20 21 21 22 22 23 23
8 10 13 16 17 19 20 20 20 21 21 21 21 22 22 21 20 20 19 19 18 18 18 18 18 18 18 18 18 18 18 18 19 19 19 19 20 20 21 22 22 23 23 24
11 14 16 17 19 19 20 20 20 21 21 22 22 22 22 21 20 20 19 19 19 19 20 20 20 20 20 19 19 19 19 19 19 19 19 20 21 22 22 23 24 24 24 25

GFSNGP_700_spd_093.txt.gz
Wind_Speed
14 15 16 10 10 9 8 7 6 8 10 14 12 14 16 18 19 16 15 11 7 7 10 18 26 36 30 24 33 33 27 24 22 19 18 12 11 12 13 14 16 16 18 19
15 13 12 10 6 5 6 7 12 11 10 12 15 21 22 21 19 15 14 12 12 7 9 12 18 24 28 31 39 32 29 28 25 22 20 16 13 15 15 15 17 18 18 17
11 7 5 6 3 2 1 2 6 9 16 23 23 28 27 23 20 17 14 14 18 12 11 14 17 24 31 39 41 35 32 29 27 25 24 20 19 18 19 20 20 20 20 18
4 1 4 10 7 5 4 6 9 12 19 24 29 26 24 20 16 13 16 13 12 14 13 18 19 28 37 38 37 34 31 29 27 26 26 25 24 22 22 22 22 22 22 20
4 2 11 9 7 5 6 11 10 20 22 25 21 16 14 13 11 13 16 16 16 18 18 22 27 30 31 32 32 30 30 29 28 28 28 27 27 26 25 24 24 24 24 24
3 3 3 7 5 6 8 4 14 20 24 19 11 7 9 10 9 9 6 9 10 15 15 21 26 32 33 37 34 30 29 26 27 28 29 29 28 28 27 27 26 24 24 24
3 2 5 4 7 2 5 6 15 16 21 15 9 6 6 4 3 2 1 3 6 5 4 8 16 24 30 29 36 35 33 33 35 31 28 27 27 27 26 27 27 25 25 26
1 2 4 3 10 7 6 6 8 9 16 19 15 8 4 2 1 1 3 8 10 8 10 9 10 6 14 25 33 35 38 37 34 28 37 32 28 28 31 29 29 26 22 25
5 3 6 12 10 10 8 5 2 6 10 13 14 14 12 11 9 7 6 5 7 8 9 11 9 10 7 7 5 14 15 13 25 29 33 30 23 24 28 13 22 22 24 26
3 4 4 6 8 7 5 3 3 4 6 8 10 11 11 11 10 9 8 7 9 11 11 10 10 8 6 7 10 8 8 5 4 4 8 11 14 15 19 13 13 14 17 19
5 2 4 8 6 4 5 4 4 5 7 8 9 9 11 11 11 11 11 10 10 9 9 9 11 11 9 5 6 4 5 10 9 4 3 4 3 2 7 11 14 17 17 19
5 3 2 3 2 2 2 3 3 5 7 9 10 10 11 11 11 11 12 12 12 12 11 10 10 9 10 11 11 9 7 4 5 7 8 4 6 8 9 11 13 14 15 18
5 5 4 1 1 1 2 3 3 4 4 5 5 6 4 4 5 6 6 7 7 7 8 8 8 7 7 7 7 6 7 8 10 10 8 7 9 11 13 16 19 23 24 25
7 5 3 3 3 3 2 2 2 3 4 5 4 4 4 5 5 6 6 7 8 8 8 8 8 7 6 5 6 6 6 7 8 8 8 8 9 11 13 14 17 18 20 21
2 1 2 4 4 3 3 2 2 2 3 4 5 5 6 5 5 6 6 7 7 7 8 8 9 9 9 9 9 9 10 10 10 10 11 11 12 13 14 15 16 18 18 20
2 2 2 2 3 3 3 2 2 3 4 5 5 5 5 6 6 7 7 8 8 9 9 9 10 10 11 11 11 11 11 11 12 12 13 14 15 16 16 17 18 19 19 21
2 3 3 4 5 5 5 5 5 5 5 4 4 5 6 6 7 7 8 8 9 10 11 11 12 13 14 14 15 16 16 17 16 16 16 16 16 17 17 18 19 20 21 22
3 4 4 4 5 6 6 5 5 6 6 6 7 7 8 9 10 11 12 12 13 14 16 17 19 19 20 20 20 21 21 21 21 21 21 21 21 22 22 23 23 23 23 24
3 4 5 5 6 6 6 6 6 6 6 7 8 10 12 14 15 17 18 20 21 22 22 22 23 23 24 24 25 25 24 24 25 24 25 25 25 25 25 26 26 26 26 26
2 3 4 4 5 5 5 6 7 9 12 13 15 17 18 20 21 23 24 25 25 25 26 26 26 26 25 25 25 25 25 24 24 24 24 25 25 25 25 25 26 26 26 26
2 3 3 3 2 3 5 7 9 12 15 17 20 21 23 24 25 26 27 27 27 27 28 27 26 26 26 26 25 25 24 24 24 24 24 24 25 25 25 25 25 26 26 26
0 2 1 2 5 8 11 13 15 18 20 22 25 27 28 28 28 28 28 30 28 28 27 27 26 26 27 26 26 26 26 25 25 24 23 23 23 23 23 23 24 24 24 24
2 1 4 7 9 12 14 16 18 21 23 25 25 26 26 25 25 26 28 26 27 27 27 26 26 26 26 26 25 25 25 25 25 25 25 25 24 23 23 23 23 22 22 22
3 5 7 10 12 15 17 20 22 23 24 24 23 24 24 25 24 23 24 24 24 24 24 25 24 24 24 24 24 24 24 24 23 23 24 24 24 24 24 23 23 23 23 23
6 8 11 13 17 19 21 23 24 25 25 25 24 24 24 24 25 25 24 24 23 23 23 21 22 22 22 22 23 23 23 23 23 23 23 23 23 23 23 23 23 23 24 24
8 11 14 17 20 21 23 24 25 26 26 26 26 25 25 25 25 25 24 24 24 23 23 23 23 22 22 22 22 22 22 22 22 22 23 23 23 23 23 24 24 24 25 25
11 14 16 19 21 22 24 25 25 26 25 24 25 25 25 25 24 24 24 24 24 24 23 23 23 23 23 23 22 22 22 22 22 22 23 23 23 24 24 25 26 26 26 27

GFSNGP_700_spd_096.txt.gz
Wind_Speed
31 33 20 21 15 7 8 5 3 5 13 18 19 16 18 19 24 21 14 10 8 8 5 6 14 19 22 22 21 25 27 29 27 24 20 18 15 14 13 9 8 9 9 11
25 18 24 17 9 8 6 4 4 7 3 20 16 21 23 27 25 21 18 9 9 8 9 8 8 13 21 19 16 23 28 30 29 26 23 20 17 14 13 10 13 13 15 15
17 19 26 22 13 10 14 10 10 14 19 25 29 29 25 24 21 17 12 11 7 7 12 11 12 12 16 22 30 35 29 34 32 29 26 23 19 18 17 19 17 16 16 16
5 9 9 14 17 13 11 10 9 9 18 24 27 22 18 15 14 12 10 13 12 10 9 16 16 17 19 22 28 32 31 37 34 31 28 26 23 21 19 19 20 20 19 19
6 16 17 13 15 14 12 9 10 13 19 21 15 10 11 11 9 9 11 12 13 12 13 13 20 21 22 29 30 32 35 38 33 32 30 28 27 27 25 23 23 22 23 23
5 8 3 5 7 5 2 1 12 15 20 19 12 8 10 10 10 11 11 11 12 14 15 16 15 25 24 30 35 38 34 36 33 29 28 28 28 27 27 27 26 26 26 25
9 7 6 11 7 1 2 5 10 13 17 18 12 9 9 10 10 10 10 11 13 14 16 17 12 9 15 25 27 35 42 41 36 34 32 30 29 30 32 32 30 30 29 29
9 6 4 11 4 4 2 3 6 9 11 15 15 13 12 11 10 10 9 10 13 15 15 15 16 14 11 1 11 3 15 34 37 34 32 30 33 31 32 34 31 30 29 30
5 4 8 10 10 6 3 3 3 5 7 10 11 12 12 12 12 11 11 10 12 14 17 15 17 17 14 18 17 16 11 8 7 18 20 25 30 40 41 39 36 38 38 40
3 7 8 10 7 6 6 5 3 2 5 8 9 10 11 11 12 13 14 13 13 12 13 14 15 15 15 14 13 13 13 13 11 9 8 7 5 6 4 12 22 11 19 16
1 1 4 8 6 5 7 7 5 5 7 8 10 11 12 13 14 14 14 14 14 14 14 15 16 15 16 15 13 12 10 7 7 6 3 4 7 8 11 5 2 5 5 6
4 1 1 2 3 3 4 4 4 5 6 7 8 9 10 10 11 12 12 13 13 13 14 15 15 15 15 15 15 15 14 13 11 11 10 9 7 5 6 8 8 10 8 7
2 2 3 3 5 5 3 2 2 3 4 5 6 7 7 7 7 9 10 10 10 10 11 12 12 12 12 12 12 11 11 12 11 9 9 10 11 12 13 13 13 12 15 18
5 4 3 6 6 5 4 3 3 4 5 5 5 5 6 8 8 8 8 9 9 9 9 10 10 10 11 10 10 10 9 8 8 10 11 11 11 11 13 13 13 14 16 18
3 2 3 5 5 4 3 2 3 3 3 4 5 6 6 7 7 8 9 9 10 11 11 11 11 10 10 11 11 11 11 11 11 11 10 11 11 12 13 14 15 15 16 18
4 3 1 1 0 0 1 1 2 2 2 4 5 6 7 8 9 10 10 11 11 11 11 11 12 12 13 12 12 12 12 13 13 14 14 14 14 15 15 15 16 17 18 18
2 3 3 3 3 3 3 3 4 4 5 6 6 7 7 8 9 11 12 13 14 16 17 17 18 18 18 19 19 19 19 19 19 19 19 19 19 19 19 19 19 20 21 21
3 4 4 4 4 3 4 5 6 6 6 7 7 8 10 11 12 14 16 17 18 20 21 21 22 23 24 25 25 24 24 24 23 23 23 23 23 22 22 23 22 22 23 23
3 3 3 4 5 6 6 6 5 6 7 9 11 13 15 17 19 21 22 23 24 24 25 25 25 25 26 26 26 26 25 25 25 25 25 24 23 24 24 24 23 23 23 23
2 2 3 5 6 5 5 6 8 9 11 13 14 16 18 19 21 22 23 23 26 26 26 25 25 24 25 25 25 24 25 25 25 23 24 24 24 23 23 24 24 24 24 24
2 3 4 5 5 6 7 9 11 14 16 19 22 24 26 27 28 28 29 27 25 24 24 25 25 25 25 24 24 24 24 24 23 23 22 23 23 23 22 23 23 23 23 23
3 4 3 3 5 7 10 13 16 19 22 24 26 28 29 28 28 27 26 28 26 26 25 24 23 23 24 23 23 23 23 22 22 22 22 21 22 22 21 21 21 22 22 22
4 1 2 5 8 11 15 18 20 23 24 25 26 27 27 28 27 28 31 28 29 29 28 27 26 25 24 24 23 22 22 21 21 21 20 20 20 20 21 20 20 20 20 20
1 3 6 9 12 15 18 21 22 23 25 25 25 27 27 27 30 28 27 25 25 26 26 26 26 26 25 24 23 23 22 22 21 21 21 21 20 20 20 19 18 19 19 18
3 6 9 12 15 17 19 20 23 25 27 29 29 26 24 25 25 27 27 28 27 26 27 26 25 25 25 26 25 24 24 23 22 22 21 21 21 21 20 20 20 20 20 20
6 9 12 16 19 20 22 25 27 29 29 29 30 31 30 28 28 28 28 28 27 28 27 27 27 26 26 25 25 25 24 24 23 23 23 22 22 22 22 22 22 22 22 22
9 12 16 18 19 22 25 26 28 30 31 29 28 29 30 30 30 29 29 28 28 28 27 27 27 26 26 25 24 24 24 24 24 24 24 24 24 24 24 24 24 24 25 25

GFSNGP_700_spd_102.txt.gz
Wind_Speed
31 22 13 14 18 6 16 9 7 7 14 20 20 18 16 14 12 10 7 7 5 3 5 5 9 13 19 13 15 14 18 24 24 23 25 21 26 27 26 23 22 21 19 18
38 15 8 6 15 22 27 23 11 10 16 18 17 16 14 15 15 13 10 10 8 2 3 6 4 5 7 10 21 19 18 19 20 21 22 23 28 28 25 23 22 20 17 14
27 28 19 21 21 25 28 18 14 14 9 11 14 17 18 16 16 17 16 16 13 6 3 3 5 6 9 9 17 22 19 22 20 18 19 17 22 24 22 23 21 16 14 15
6 14 6 14 10 18 26 24 20 14 8 7 11 15 13 14 14 13 13 12 14 14 9 5 4 7 8 12 11 23 18 17 18 23 21 19 20 28 26 23 20 13 13 17
4 16 19 13 11 9 16 20 20 16 11 8 8 10 11 18 20 19 18 18 18 19 18 16 10 5 5 15 15 14 19 25 22 27 24 22 20 24 29 28 23 18 15 14
3 6 4 13 0 7 12 17 16 15 15 14 13 7 15 17 18 20 21 22 23 24 23 19 20 19 14 7 15 14 20 23 31 32 35 30 27 28 26 30 28 24 27 26
14 7 4 13 6 9 2 3 11 11 14 16 14 18 19 19 16 16 18 19 20 19 20 23 24 23 20 18 10 3 10 18 28 32 36 33 35 34 31 31 35 28 27 25
5 5 3 12 4 2 11 8 8 9 12 15 18 20 19 18 18 17 17 17 18 18 18 17 17 17 18 18 22 22 20 13 7 15 19 21 33 37 35 32 32 34 33 30
6 7 8 11 14 13 10 9 8 9 11 15 16 16 17 16 16 16 16 16 16 15 16 17 16 16 14 16 17 18 18 15 16 15 13 7 5 11 23 31 30 34 37 32
5 10 10 11 12 12 11 9 9 9 10 13 13 14 14 13 13 13 14 14 14 14 14 14 14 16 17 16 15 15 15 15 15 14 14 14 12 10 9 5 2 10 18 25
8 7 10 8 9 11 10 10 10 10 9 8 10 9 9 9 10 10 10 10 10 10 11 11 12 12 12 12 13 13 14 14 14 13 12 12 12 11 9 6 5 6 4 3
5 8 8 7 7 7 7 8 8 8 6 4 6 6 6 7 8 9 10 11 12 13 13 13 14 14 14 14 14 13 12 12 11 12 13 12 11 10 8 7 6 5 5 1
7 8 7 6 7 7 6 5 4 4 3 2 4 4 5 6 7 8 10 12 13 13 13 14 15 15 15 15 16 15 14 14 14 13 12 10 10 10 10 11 10 10 10 9
8 7 6 5 5 5 6 3 2 2 3 3 4 5 5 6 7 9 10 10 10 11 11 12 13 14 15 15 15 16 16 16 15 14 14 14 14 13 12 11 11 12 13 15
7 4 5 4 5 4 4 2 2 1 3 5 6 7 7 8 9 9 9 11 12 13 15 16 17 18 19 20 20 21 20 20 20 19 19 18 18 17 17 15 15 15 15 15
5 5 5 3 1 1 2 3 4 6 6 7 8 8 8 8 9 10 12 13 15 16 16 17 18 19 19 21 22 23 24 25 25 24 23 22 22 21 21 20 19 18 19 19
5 4 3 4 5 5 5 6 7 8 8 7 7 7 7 9 11 12 13 13 16 17 19 21 22 22 22 23 23 24 25 25 25 25 26 26 25 24 23 22 23 23 22 21
7 6 6 5 6 6 7 9 9 8 6 6 6 8 9 10 11 13 16 19 19 20 21 22 22 22 23 24 25 25 25 25 26 26 25 25 25 26 25 24 23 23 22 22
7 6 6 7 8 9 9 8 6 5 5 6 7 8 10 13 17 19 20 19 19 22 22 22 24 24 24 25 26 26 26 26 26 26 26 25 24 24 24 25 24 23 22 22
7 6 8 9 9 8 6 5 3 4 5 7 9 12 15 18 19 20 21 20 20 22 23 24 25 26 26 26 26 27 27 26 25 25 24 24 24 23 22 22 23 24 23 22
7 7 10 10 8 6 4 2 4 6 8 12 16 18 18 19 19 20 21 22 22 24 24 25 26 26 25 25 25 26 27 27 26 25 24 23 22 21 20 20 21 21 21 22
8 11 9 8 7 4 2 3 5 10 14 16 16 18 19 21 23 24 25 25 25 26 27 27 27 27 27 27 27 26 26 26 26 26 26 25 23 21 20 19 19 19 19 19
10 10 8 5 3 2 1 4 9 12 14 16 19 21 23 24 25 25 26 26 26 26 27 28 28 29 29 29 28 28 28 26 26 26 26 26 25 24 23 22 20 19 19 18
12 9 6 4 4 2 4 8 11 14 16 19 21 25 27 29 29 29 29 30 30 29 28 28 29 29 30 30 30 29 28 27 26 25 24 25 25 24 24 23 22 21 20 19
10 7 7 6 4 5 6 9 12 15 18 21 24 27 29 29 30 30 29 29 29 30 30 30 30 30 29 29 28 28 27 26 25 24 23 23 23 23 23 23 22 22 22 22
10 9 8 6 7 8 9 11 15 19 22 24 26 28 30 31 30 30 31 31 31 32 31 31 30 29 28 27 26 25 25 25 24 24 23 22 22 22 23 22 22 22 23 23
11 10 8 8 11 11 13 16 19 21 25 29 32 34 35 35 35 34 33 33 33 33 32 30 30 29 28 28 27 26 25 24 24 23 23 22 22 22 23 23 23 23 23 24

GFSNGP_700_spd_105.txt.gz
Wind_Speed
28 30 20 24 12 7 13 13 6 10 14 15 15 17 15 15 14 13 9 7 4 3 1 1 4 8 12 13 9 12 22 30 26 25 20 19 22 22 21 23 23 25 30 31
33 18 2 17 9 19 21 19 16 9 13 11 12 12 9 13 16 16 16 14 10 7 5 1 1 1 5 10 14 13 27 20 16 16 21 24 22 22 19 16 27 29 29 27
9 26 10 19 20 19 18 13 8 7 10 9 9 11 12 14 15 16 17 19 17 12 7 4 1 3 1 4 9 22 9 8 11 18 17 16 22 20 21 27 23 25 27 24
14 11 4 9 4 9 19 19 13 10 7 6 11 15 15 18 20 21 21 21 21 21 18 13 6 3 4 5 6 15 17 13 18 18 14 18 18 20 21 23 29 25 20 18
6 14 14 2 2 6 12 18 18 13 10 9 9 12 15 20 22 24 25 27 28 26 26 24 18 12 6 4 10 9 17 24 17 21 17 17 23 26 22 20 26 25 20 18
6 5 3 6 3 8 10 14 14 14 12 13 13 13 15 17 19 20 22 23 24 24 25 25 27 27 23 16 10 10 12 14 22 19 22 23 33 30 29 28 26 22 26 22
12 7 5 6 7 9 2 3 10 11 13 13 14 18 19 19 16 17 19 20 21 20 20 21 21 21 20 19 17 19 12 7 10 21 25 29 29 29 28 29 29 30 31 27
5 5 4 4 13 3 11 9 11 11 13 15 16 19 18 16 16 16 16 16 17 18 19 20 19 19 19 17 21 21 21 19 16 11 8 13 14 20 26 27 22 30 28 27
5 8 9 13 14 13 12 11 11 11 12 15 15 15 15 13 13 13 13 15 15 16 18 18 18 19 19 21 20 19 18 17 17 18 17 16 14 10 10 14 19 16 17 29
7 11 11 11 11 11 10 11 10 10 11 12 10 11 12 12 12 12 12 12 13 15 14 15 15 17 17 18 18 18 18 17 16 16 15 15 15 14 13 10 8 6 8 6
12 11 11 12 12 11 10 10 10 10 10 9 8 9 9 10 11 12 12 12 13 13 14 15 16 17 18 17 17 17 17 17 16 16 15 14 14 13 12 11 11 10 7 5
6 8 10 11 11 12 11 10 9 7 6 6 6 7 7 9 9 10 11 12 13 14 15 15 16 17 17 17 17 17 17 17 16 16 16 16 15 15 16 14 13 13 12 10
9 9 9 9 9 9 9 8 7 6 5 5 5 7 7 8 8 9 12 13 13 14 15 16 16 17 17 18 18 18 19 18 18 18 18 18 18 17 16 15 15 15 16 16
9 7 7 7 8 8 8 7 6 7 6 5 4 6 7 7 9 10 11 12 13 14 16 16 17 18 18 19 20 21 22 22 23 22 22 21 20 21 21 21 20 19 17 16
8 6 6 7 8 9 7 6 5 6 6 6 4 7 8 8 8 10 11 13 14 15 16 17 18 19 20 20 21 21 22 23 23 24 25 25 26 25 24 25 25 25 24 23
6 7 8 7 6 6 5 7 7 7 8 7 6 7 6 7 9 11 12 13 15 16 17 18 19 20 20 21 22 24 25 25 26 27 27 27 27 28 28 28 27 27 28 27
9 7 7 8 9 7 8 9 9 10 8 5 6 6 7 9 11 12 14 17 19 20 21 21 20 20 21 21 22 24 25 27 28 29 30 29 28 28 28 29 29 29 28 27
7 6 7 8 8 9 11 11 10 7 4 3 5 8 9 11 13 16 18 20 20 21 22 22 22 22 24 25 27 28 28 28 28 28 29 30 31 30 28 28 29 29 29 29
8 7 7 8 10 11 12 9 6 4 4 5 7 8 11 13 16 18 19 21 22 22 23 24 24 25 26 28 29 30 30 30 30 30 30 29 29 30 30 28 26 26 28 28
9 8 9 11 12 11 10 7 4 2 3 5 7 10 13 16 18 18 20 21 24 24 25 26 27 28 29 30 30 30 30 31 31 30 30 29 29 28 28 28 28 25 24 25
9 10 12 14 11 9 6 4 2 0 3 6 9 12 14 15 18 21 23 25 26 28 28 28 29 30 30 31 31 31 31 31 31 31 31 31 31 29 27 26 26 26 25 23
10 12 13 10 8 6 6 4 1 2 5 8 11 14 17 19 21 24 27 28 29 31 31 32 32 32 32 33 33 33 33 33 32 32 31 30 30 30 30 28 25 24 24 24
11 14 12 10 9 8 5 4 4 5 7 10 14 16 19 21 24 26 28 30 31 31 32 33 34 34 34 34 35 35 35 34 32 32 31 31 30 30 29 28 26 25 24 23
14 13 11 10 8 7 7 8 8 9 11 13 16 19 21 23 26 28 30 31 32 32 33 34 34 34 34 34 34 33 33 33 32 32 31 30 30 29 28 27 26 25 25 23
15 14 12 11 9 9 10 11 12 14 15 17 20 22 25 27 29 32 32 32 33 33 34 35 34 34 34 33 32 31 31 31 30 30 30 29 29 29 28 27 27 26 25 24
15 15 14 12 10 13 12 13 16 17 18 20 23 26 29 31 33 34 34 34 34 35 35 35 35 34 33 32 32 32 32 32 31 30 30 29 28 28 28 27 27 27 26 25
18 15 14 12 14 16 15 17 19 20 22 24 26 28 31 33 34 35 35 35 36 36 36 36 35 35 35 35 34 34 34 33 32 31 29 28 27 27 27 27 27 26 26 26

GFSNGP_700_spd_108.txt.gz
Wind_Speed
22 25 22 19 10 14 12 14 6 10 8 9 11 11 10 13 13 14 14 13 10 7 5 5 1 4 3 8 6 14 22 20 24 22 23 27 24 27 24 21 25 25 23 22
31 22 5 11 5 6 24 21 16 10 12 11 11 10 10 11 11 16 21 21 16 11 7 3 2 0 3 6 6 9 8 19 19 26 34 24 24 12 18 23 21 21 19 21
4 28 10 9 18 18 14 12 9 6 8 9 10 12 14 17 19 22 24 25 23 20 17 12 5 1 4 1 2 8 13 14 16 18 20 26 21 16 19 20 20 18 13 15
13 6 3 2 8 7 15 14 11 8 5 6 10 15 16 20 23 26 28 29 30 30 30 28 21 12 5 4 4 2 8 4 5 13 13 12 16 16 19 20 21 19 22 29
8 6 8 3 3 6 13 14 13 10 6 5 8 11 15 21 22 23 24 26 27 28 29 29 29 30 26 17 9 7 4 15 12 4 12 14 14 11 18 18 21 20 25 23
6 4 3 3 7 10 11 10 12 11 10 9 9 12 15 19 19 20 21 21 21 22 23 21 24 25 23 24 22 13 3 7 11 20 16 16 15 15 23 24 22 27 30 29
8 5 4 5 12 7 1 4 9 11 11 13 13 14 15 17 17 18 18 18 19 19 20 21 21 22 19 19 21 26 26 23 17 9 13 17 21 20 21 25 29 33 35 32
3 4 3 9 15 5 12 11 11 12 13 14 12 14 15 15 15 15 16 17 17 19 20 21 22 22 22 22 26 25 24 22 20 20 20 18 14 10 12 15 20 24 27 26
3 6 10 15 10 17 14 13 12 12 12 14 13 12 12 12 12 13 13 14 16 17 18 17 18 19 19 22 22 23 22 22 22 22 21 20 18 18 17 16 15 13 13 18
8 13 14 14 14 14 13 13 11 11 10 9 10 9 9 11 11 12 13 14 15 17 17 18 19 21 22 22 22 22 21 21 21 20 20 19 19 18 18 16 15 15 16 15
14 13 14 14 13 12 12 13 11 10 8 7 6 7 8 10 11 11 12 14 15 16 17 18 19 20 21 21 21 20 21 20 20 20 19 19 19 19 17 16 16 15 15 14
8 10 11 12 12 10 11 11 10 9 7 6 6 7 7 9 10 11 13 13 14 15 15 15 16 17 18 18 19 19 20 20 21 21 20 21 21 22 21 20 19 18 18 17
9 10 11 12 11 9 10 10 8 7 6 6 7 7 8 10 11 11 11 12 13 13 14 15 16 17 18 18 19 19 19 20 20 21 22 23 24 24 23 22 22 21 21 20
10 10 11 12 12 11 11 10 8 7 7 6 7 9 11 10 9 11 12 13 14 16 17 18 19 20 20 20 20 20 21 21 22 23 23 23 24 25 25 26 26 26 26 25
11 9 9 9 10 11 10 10 9 8 9 10 8 9 9 8 10 12 13 15 16 17 20 21 22 22 22 22 22 22 23 24 25 27 28 29 30 30 28 27 27 28 28 28
9 9 10 10 10 10 10 10 11 11 11 11 8 7 9 10 12 13 15 17 19 20 20 21 22 23 23 24 24 25 26 27 27 28 29 29 30 31 32 32 31 30 29 29
10 8 8 8 10 12 13 13 14 14 10 8 7 7 8 9 12 14 16 16 17 20 22 24 24 25 26 26 27 28 29 30 30 30 30 30 30 31 31 32 32 32 32 30
10 9 8 11 14 14 15 15 13 10 8 6 6 7 9 11 12 13 15 18 20 21 22 24 26 28 29 30 31 32 33 33 32 32 32 32 32 32 31 31 31 31 31 30
12 10 11 12 14 16 16 13 10 7 5 4 5 6 8 10 13 15 16 18 21 23 26 28 29 31 32 33 34 35 36 36 35 35 34 33 33 32 31 31 31 31 30 29
11 11 13 14 15 16 13 10 7 4 3 3 4 6 8 10 13 16 18 21 24 26 28 30 32 33 34 35 36 36 37 37 37 36 36 34 33 32 32 31 30 29 29 29
12 12 13 15 14 11 9 7 5 3 0 2 5 7 10 13 16 19 21 24 26 28 30 32 33 34 35 36 37 37 37 37 37 36 35 34 34 33 32 31 30 29 28 28
10 11 14 15 13 12 9 6 4 3 4 6 8 11 13 17 20 23 25 28 31 32 34 35 36 36 37 38 39 39 39 38 37 36 35 35 34 32 31 30 29 29 28 27
11 13 16 15 13 10 8 8 7 7 8 11 13 16 18 20 23 26 29 32 34 35 37 37 38 38 38 39 38 38 37 36 35 35 34 34 33 32 31 30 30 29 28 27
10 15 14 13 12 11 11 11 10 11 13 15 17 20 22 24 28 29 31 34 35 36 37 37 37 38 38 38 37 37 36 36 36 35 35 34 34 33 31 30 29 28 27 27
12 16 16 14 14 13 13 12 12 14 16 18 21 24 25 27 30 33 35 36 37 38 37 38 38 38 37 37 37 36 36 36 36 36 35 34 33 33 33 31 30 29 27 26
13 18 19 17 15 15 15 15 15 17 19 21 24 27 28 30 33 35 36 37 38 38 38 39 38 38 38 38 38 38 38 38 37 37 36 35 34 32 31 30 30 29 28 27
16 18 18 17 18 18 18 18 18 20 22 24 27 28 30 33 35 36 37 38 38 39 39 39 39 39 40 40 40 40 40 39 39 38 37 36 35 34 33 32 31 30 30 29

GFSNGP_700_spd_111.txt.gz
Wind_Speed
16 16 15 19 16 11 14 25 14 11 5 5 7 9 10 11 13 16 17 16 13 13 12 10 8 10 10 7 1 17 11 7 7 15 21 25 31 34 35 33 31 33 33 35
22 20 8 10 7 6 5 15 12 12 9 8 9 10 10 14 18 22 26 28 29 26 18 11 9 10 6 9 6 5 6 12 13 13 18 22 28 27 25 27 27 33 37 33
8 9 15 5 7 4 6 11 11 5 10 11 10 11 14 18 22 26 29 30 32 33 32 26 18 15 13 9 9 2 6 4 7 18 20 23 32 24 22 25 37 29 20 25
5 4 2 1 2 6 9 9 10 10 9 10 12 13 13 17 21 23 25 27 28 30 31 32 32 29 23 13 10 10 7 11 2 5 7 26 27 25 30 24 19 18 19 21
5 3 4 4 3 3 8 9 6 7 9 9 11 13 14 18 20 22 23 24 26 25 26 25 25 28 29 22 18 11 6 11 10 11 6 8 13 18 21 17 10 13 18 19
8 4 5 7 8 9 7 5 7 9 10 10 11 13 14 17 18 18 19 19 22 23 24 23 25 25 22 21 25 27 26 22 23 20 15 9 5 1 7 9 16 20 19 20
8 3 3 11 15 8 2 5 9 12 12 12 12 13 15 16 15 16 17 18 20 19 20 23 24 24 24 25 26 30 29 27 24 24 23 24 22 14 13 12 13 15 15 18
7 3 4 12 16 6 9 13 13 14 14 12 11 12 14 15 14 15 15 16 17 18 19 21 22 23 23 24 29 28 26 25 25 25 25 25 24 23 21 19 16 13 12 12
8 7 10 18 12 12 14 13 14 14 12 11 9 11 12 12 13 14 15 15 17 19 20 20 21 22 22 25 25 25 24 23 24 24 23 23 22 21 20 20 19 17 16 15
9 11 19 15 18 15 15 14 13 14 11 9 9 10 10 11 12 14 16 17 18 17 17 18 19 20 21 21 21 21 20 20 20 19 19 18 18 19 19 19 18 18 18 17
10 16 18 18 17 16 15 15 13 11 10 8 8 9 8 10 11 13 14 15 15 15 15 17 18 19 19 20 20 19 19 20 19 18 18 17 17 18 18 18 18 17 17 17
11 16 12 18 17 17 16 14 13 11 9 8 8 9 9 11 11 11 11 12 14 16 17 18 19 19 19 18 18 18 19 18 19 20 20 21 21 21 21 21 21 22 21 20
13 10 16 14 15 15 15 13 11 10 9 9 9 10 11 11 10 9 9 11 13 14 15 17 18 20 20 20 20 20 20 20 20 20 21 21 22 23 23 22 22 22 23 23
12 13 14 14 13 13 13 11 10 10 9 9 10 12 10 7 7 8 10 11 12 14 15 17 18 19 19 20 20 21 22 23 24 24 25 25 25 25 24 24 23 24 24 24
12 12 13 12 13 13 12 11 11 11 12 13 13 10 8 7 6 8 9 11 13 15 17 18 19 20 22 22 23 24 24 25 25 26 27 27 28 29 29 29 28 29 29 29
11 11 12 14 14 13 13 13 13 15 15 14 10 8 7 6 6 8 10 12 15 16 17 18 20 22 23 24 25 27 27 28 29 30 31 31 31 31 31 31 31 30 30 29
10 11 11 12 14 15 14 15 16 17 14 10 7 6 6 7 8 10 12 14 14 16 17 20 23 25 27 28 29 30 31 33 33 34 35 35 36 36 35 34 33 32 31 30
12 12 13 15 14 15 16 16 17 14 11 8 6 5 6 8 9 10 11 13 16 18 21 24 26 29 30 32 33 34 34 35 36 37 37 38 37 37 36 36 34 33 32 31
14 13 13 14 16 18 18 17 15 12 9 6 5 5 6 7 8 11 14 17 20 23 25 28 29 31 32 33 35 35 36 37 38 38 38 38 37 36 35 33 32 31 30 29
14 13 14 15 17 18 18 15 13 10 7 5 4 3 4 7 10 13 16 19 22 25 27 29 31 32 34 36 36 37 37 38 38 38 38 37 36 34 33 32 31 29 29 28
11 12 13 15 17 17 16 14 11 9 6 3 0 3 7 10 14 17 20 23 26 29 31 32 33 35 36 37 37 38 39 39 38 37 36 35 34 33 32 31 30 29 28 27
12 13 15 18 19 18 15 12 9 7 4 3 5 8 11 14 18 21 24 27 30 32 34 35 36 37 38 38 39 40 40 39 38 37 36 35 35 34 33 32 31 30 28 27
14 14 17 20 18 15 13 12 8 6 6 7 9 12 15 18 21 25 28 30 33 36 37 37 38 39 39 39 39 39 39 39 38 38 38 37 37 36 34 33 32 30 29 28
12 13 17 16 15 14 13 10 9 9 10 12 13 15 18 22 25 27 30 33 35 37 39 39 39 40 40 39 39 39 39 40 40 40 40 39 38 37 35 34 32 31 30 28
12 13 17 17 16 15 13 12 12 13 14 15 17 19 22 25 27 30 33 36 37 38 39 40 40 40 40 40 40 41 41 42 42 42 41 40 38 37 35 34 33 31 29 29
12 13 18 18 17 16 15 15 15 15 16 18 20 23 25 27 29 32 34 36 38 39 40 40 40 40 41 41 42 43 43 43 42 41 40 39 38 37 36 34 33 32 31 28
13 14 15 17 17 18 18 17 17 18 19 20 23 25 27 28 30 32 35 37 38 39 39 40 40 41 41 42 43 43 43 42 40 39 38 38 38 37 36 35 34 32 31 30

GFSNGP_700_spd_114.txt.gz
Wind_Speed
18 16 14 16 17 14 18 17 16 12 13 6 1 4 6 9 11 16 23 25 24 23 20 18 22 20 21 16 2 10 7 14 17 20 25 25 27 27 31 33 36 37 37 37
14 12 16 18 17 13 11 4 11 12 9 4 5 7 8 10 14 20 24 27 30 32 30 26 21 21 20 22 13 5 3 11 12 23 19 26 28 30 34 35 37 36 34 32
4 3 9 6 6 9 12 8 12 4 8 9 8 7 8 10 15 19 22 25 27 30 33 34 33 29 27 22 20 14 10 7 12 14 14 25 29 44 39 32 32 33 32 29
4 8 5 2 2 3 6 8 7 10 10 10 9 8 9 11 15 17 20 22 24 26 27 28 30 31 30 26 25 21 21 15 9 6 6 5 26 24 30 33 36 37 32 30
5 15 2 4 5 5 5 4 9 10 10 10 10 11 9 11 14 17 20 22 25 26 28 27 26 28 28 29 32 29 29 25 20 16 17 11 6 5 14 19 23 24 24 21
10 5 4 5 8 7 5 2 6 11 12 11 10 9 8 11 14 15 17 19 21 22 23 23 25 26 25 27 29 33 34 33 30 28 26 18 16 18 14 9 2 3 15 19
16 6 3 9 11 10 2 4 8 12 13 13 10 9 8 10 12 13 16 17 21 20 21 24 26 26 25 27 30 34 32 30 29 29 28 29 28 26 24 19 17 14 7 5
8 5 5 14 16 9 5 10 12 14 15 13 11 9 8 10 11 14 16 18 19 19 20 21 21 22 23 24 28 27 27 25 25 26 26 26 25 25 24 23 22 20 19 17
11 10 6 17 16 11 12 12 15 14 14 14 10 8 9 11 12 13 15 15 16 17 18 19 19 20 21 24 24 24 24 23 23 24 23 22 21 21 20 19 18 17 17 17
9 11 11 19 15 14 16 16 15 15 12 11 10 9 11 12 12 13 13 13 15 16 16 17 18 20 21 22 21 21 21 21 21 20 20 20 20 19 19 18 18 18 18 17
6 12 19 18 18 17 17 17 15 12 11 10 10 9 11 12 13 11 10 11 13 14 15 17 19 20 21 20 20 19 19 19 18 18 18 18 19 20 20 20 20 20 20 20
10 15 15 19 18 18 17 17 15 13 10 9 8 10 11 12 10 8 9 10 11 13 15 16 17 17 18 19 20 20 20 20 20 20 20 21 21 20 20 20 21 22 22 22
10 16 14 17 16 17 17 16 14 11 10 10 9 10 11 9 8 7 7 9 11 11 12 14 16 18 20 20 21 22 23 23 23 24 24 25 25 25 26 26 25 25 25 25
12 10 16 18 17 18 18 16 15 13 11 10 11 11 9 7 5 5 7 8 9 10 12 15 18 19 19 21 22 23 24 24 25 26 26 27 27 28 29 30 29 30 30 30
14 16 16 17 18 18 18 17 15 13 13 13 13 11 8 5 4 5 6 7 8 10 13 15 16 18 20 22 23 25 26 28 29 29 30 31 32 33 34 34 35 35 35 35
14 15 16 17 17 19 18 17 16 13 14 15 13 9 6 4 3 4 5 6 9 12 13 15 17 20 22 24 27 29 30 31 32 33 34 35 36 37 37 38 38 38 37 36
13 13 14 16 17 17 17 16 15 15 16 14 11 8 6 4 4 4 5 8 11 13 15 17 20 23 25 27 30 32 34 34 36 37 38 40 41 41 41 40 38 37 35 33
14 16 18 18 17 16 15 14 15 17 15 12 10 8 6 5 4 3 5 8 11 14 17 21 24 27 30 32 34 35 36 37 38 39 40 41 41 41 41 40 38 37 35 33
14 14 15 16 18 17 17 17 18 17 14 12 11 9 7 4 1 4 7 10 14 18 22 25 28 31 33 35 37 38 38 39 40 40 41 41 40 40 38 37 36 35 34 32
13 13 14 15 17 18 18 20 19 16 14 13 11 8 5 3 5 8 11 14 18 21 25 29 31 34 36 39 40 41 41 42 41 42 41 40 39 38 37 37 36 35 34 33
14 12 13 15 16 18 21 20 18 15 14 11 8 6 5 7 9 11 14 17 21 25 28 31 34 37 39 41 42 42 42 41 41 41 40 39 38 38 38 38 37 36 35 33
13 11 12 14 17 19 18 17 15 14 12 10 8 6 8 10 13 15 18 21 25 28 31 33 36 38 40 41 41 42 42 42 41 40 40 41 41 41 40 39 38 37 35 34
12 11 14 16 20 20 18 16 15 14 13 10 9 9 12 14 16 19 21 24 27 30 33 34 36 39 40 41 41 42 41 41 41 41 42 42 42 42 41 39 38 36 35 34
10 13 15 18 20 19 17 17 16 15 13 11 12 13 15 17 19 22 24 27 29 32 34 36 38 40 41 41 42 41 41 41 42 43 43 42 41 40 39 39 37 36 34 34
13 13 14 18 20 20 19 18 16 15 14 14 15 17 18 19 21 24 26 29 31 33 36 37 39 40 41 41 41 41 41 43 43 42 41 40 39 38 37 37 37 36 35 33
12 13 15 19 20 20 18 17 17 16 16 16 18 19 20 21 24 25 27 29 32 34 36 38 39 40 40 40 40 41 42 42 41 40 40 39 38 37 36 36 35 35 34 33
12 13 14 16 18 19 18 18 18 18 18 19 20 21 21 23 25 27 28 30 33 35 37 38 39 38 38 39 40 41 41 40 40 39 38 37 36 36 36 35 35 34 33 32

GFSNGP_700_spd_117.txt.gz
Wind_Speed
24 20 17 17 16 16 19 21 20 19 13 17 15 9 3 4 7 9 15 22 26 28 28 26 20 21 22 20 18 11 9 2 20 23 22 24 22 26 30 30 30 31 33 35
20 16 16 21 23 21 22 23 28 22 19 18 10 3 3 4 7 9 15 20 23 27 28 27 27 28 27 28 24 17 15 11 9 21 30 25 23 22 23 28 31 31 30 31
10 5 8 11 20 19 19 23 14 12 12 10 7 5 3 5 7 11 15 18 21 24 26 29 30 29 30 30 27 28 29 26 19 12 7 18 23 24 26 27 30 33 36 41
9 5 8 4 6 9 12 13 16 15 10 9 7 6 5 6 8 11 15 19 21 23 26 26 28 28 30 30 30 29 28 29 26 22 17 13 9 15 29 30 33 30 33 34
7 13 3 8 10 8 7 9 11 11 9 9 9 8 6 5 7 11 14 16 19 22 25 24 25 28 27 27 29 30 35 36 35 31 28 26 21 14 5 9 6 10 12 19
10 10 3 6 7 8 6 6 12 13 11 11 10 6 3 5 9 11 14 17 20 21 22 23 24 26 25 26 28 32 34 35 33 32 32 35 33 26 22 20 19 16 8 4
21 12 3 8 10 10 4 5 9 14 14 12 9 8 6 6 9 12 14 17 18 18 19 21 23 23 23 24 28 32 31 30 29 29 30 31 30 29 29 28 26 24 21 18
18 11 7 9 14 12 6 5 10 13 13 12 11 9 7 8 9 12 14 14 16 17 18 20 21 22 23 24 28 28 28 27 27 28 28 27 28 27 26 25 23 22 20 18
9 8 7 7 16 14 6 11 13 15 16 14 11 9 8 9 11 12 11 12 14 15 17 18 19 21 22 24 25 25 25 24 25 25 24 24 24 24 23 23 22 22 21 21
13 16 12 9 15 16 11 14 15 16 14 13 11 10 10 11 11 10 10 11 13 14 15 16 17 19 21 22 22 22 22 22 22 22 24 24 23 22 22 21 21 21 21 21
18 15 13 15 17 15 16 17 16 15 13 11 11 10 10 11 10 8 9 10 11 12 13 15 16 17 19 20 21 21 22 23 23 24 24 23 23 25 25 26 26 26 26 25
9 10 15 18 18 20 18 18 16 13 11 9 9 10 11 10 8 7 7 8 9 10 12 13 14 16 18 19 21 21 22 22 23 24 25 25 26 26 25 26 28 28 29 30
6 8 11 16 20 20 19 18 15 13 11 10 9 10 10 8 6 5 6 7 8 9 10 12 14 16 18 20 21 22 24 26 27 27 27 27 27 28 28 30 30 31 32 32
7 10 10 19 19 20 19 18 16 13 12 12 12 13 10 7 5 4 4 5 6 8 10 12 14 16 18 20 22 24 26 26 27 28 29 30 30 31 32 33 34 35 35 36
11 10 13 16 18 19 19 18 16 15 14 12 14 13 9 7 5 3 4 4 6 7 9 12 15 17 19 22 24 27 29 32 33 34 34 34 35 35 36 37 37 38 37 36
14 15 15 17 17 19 19 18 17 15 14 14 14 11 9 7 5 4 4 4 5 7 10 13 16 19 22 25 27 29 32 34 35 36 37 38 39 40 40 41 40 40 39 36
13 15 16 17 18 18 18 17 16 16 15 16 14 11 8 6 6 6 3 2 5 8 12 15 18 21 24 27 30 33 35 37 39 40 41 43 44 44 44 42 41 39 38 36
16 15 16 17 18 19 18 17 17 17 17 16 13 10 9 8 7 4 1 4 8 11 14 18 21 24 27 30 32 35 37 39 41 43 44 45 44 45 44 43 43 42 41 40
15 14 15 17 20 19 18 18 17 18 18 14 12 11 10 9 7 3 4 7 11 14 17 21 24 27 29 32 34 37 39 40 42 44 44 44 43 42 42 42 42 42 42 41
15 15 15 16 17 18 18 17 19 20 16 14 13 12 10 10 7 6 7 10 14 17 21 24 27 29 32 34 36 38 41 42 43 44 44 43 43 43 43 44 44 44 43 42
14 14 13 14 16 17 19 20 20 18 15 14 12 11 11 11 9 10 12 14 18 21 24 27 30 32 34 37 39 41 42 43 43 43 42 42 43 44 44 44 44 43 42 41
11 11 12 13 15 17 18 20 19 16 14 14 13 12 13 13 13 14 16 18 20 24 26 29 31 33 35 38 40 41 41 42 41 41 41 43 43 43 43 43 42 41 40 39
11 11 10 12 14 16 18 18 16 15 15 15 14 14 15 16 17 17 18 20 24 26 29 30 33 35 37 39 40 41 40 40 41 41 42 42 42 42 42 42 41 40 38 36
11 10 9 10 14 18 19 17 17 16 16 15 15 17 18 19 19 20 22 24 27 29 30 32 34 36 38 39 40 40 39 40 40 41 42 42 42 41 40 39 38 37 37 37
9 8 9 11 14 18 19 18 18 17 17 17 17 20 21 21 21 22 24 26 28 30 32 32 35 37 38 39 39 38 39 40 40 41 41 41 40 39 38 37 36 36 36 35
8 9 10 11 15 18 18 18 18 18 18 20 21 22 21 22 23 24 25 27 28 30 32 34 35 36 38 38 37 38 38 39 39 40 39 39 38 38 37 36 35 35 35 34
9 9 10 11 13 16 18 19 19 20 21 22 22 22 22 22 23 25 26 27 29 30 32 34 36 36 35 36 37 37 38 38 39 38 38 38 37 36 36 36 35 35 34 34

GFSNGP_700_spd_123.txt.gz
Wind_Speed
25 27 28 27 30 21 21 21 19 23 21 21 24 23 22 21 13 10 10 8 8 12 16 20 25 27 30 30 31 32 32 35 36 26 11 4 5 9 11 14 17 15 17 21
21 21 22 27 24 29 27 28 28 28 29 30 28 21 18 10 7 7 6 4 5 11 19 21 24 27 28 29 32 36 41 41 38 37 32 25 13 16 6 9 19 24 22 26
11 6 10 14 19 21 25 25 28 32 32 25 20 16 10 6 4 2 1 7 14 11 15 19 21 24 25 29 32 35 36 38 40 42 43 42 39 36 27 20 11 12 6 28
11 11 4 9 10 12 15 21 29 28 24 21 17 11 7 5 2 3 9 13 7 11 14 17 19 21 24 26 28 31 33 34 36 37 40 42 45 45 46 42 41 40 37 36
6 6 16 22 16 15 12 13 14 14 14 13 11 10 9 6 6 10 10 7 6 10 13 16 18 19 22 23 25 28 30 33 35 36 36 37 38 38 39 37 37 39 39 39
7 5 3 4 4 7 10 11 9 6 7 9 12 12 9 9 11 9 8 7 8 11 14 15 16 18 18 21 23 26 29 31 31 32 32 33 34 34 34 34 35 34 32 31
22 9 9 16 11 9 4 4 4 5 8 11 13 9 9 10 10 9 8 7 9 12 12 12 15 16 17 18 21 27 26 27 27 28 29 31 30 30 30 29 28 27 28 27
18 10 11 18 12 14 8 7 7 6 12 14 13 10 11 10 11 9 7 7 8 10 9 11 13 15 15 17 23 24 24 24 25 26 27 27 27 27 27 27 26 27 26 24
12 11 11 10 13 14 16 6 7 6 11 14 12 12 11 11 11 9 8 8 8 8 9 10 12 14 16 20 22 22 22 22 24 24 24 24 23 23 23 24 24 25 24 23
19 22 19 19 16 13 11 12 9 11 14 14 13 13 12 13 12 10 8 7 7 8 8 10 12 15 16 18 19 19 19 21 22 22 23 23 23 23 23 23 24 25 26 26
20 24 23 23 20 16 14 13 14 16 17 15 15 14 14 14 12 10 9 7 7 7 9 10 12 13 14 16 17 18 20 21 22 24 24 25 24 25 27 29 31 31 31 30
17 14 16 12 12 13 17 16 17 18 18 18 16 15 15 15 12 10 8 7 6 7 9 9 9 11 13 15 17 19 21 23 25 27 29 30 31 33 33 32 31 33 34 34
15 13 13 15 15 15 19 19 20 20 18 16 16 17 16 15 12 10 9 8 8 8 6 6 8 9 11 13 15 17 19 21 23 24 26 27 30 31 31 33 34 33 34 34
11 12 14 11 11 20 23 23 23 21 19 18 17 15 17 15 12 10 8 7 8 7 4 5 5 8 9 12 14 17 20 23 25 27 28 30 31 31 32 32 32 31 32 34
12 12 11 10 11 19 23 25 24 23 21 19 17 17 16 14 11 9 8 9 8 5 3 2 4 7 9 12 15 18 22 24 27 29 30 31 32 33 34 34 34 33 31 32
13 10 12 10 12 18 22 24 24 22 19 17 16 17 18 14 12 10 10 10 7 5 2 2 5 9 12 16 19 22 25 27 28 30 32 33 34 34 33 33 33 33 33 33
11 10 13 14 13 18 20 22 21 19 17 17 17 19 16 14 11 10 11 9 7 5 4 6 9 12 15 19 22 25 29 31 33 34 35 37 37 37 37 37 36 36 35 35
9 10 11 14 16 18 21 21 20 19 18 17 17 17 15 13 12 12 11 9 6 5 7 10 12 16 19 22 25 28 31 33 35 36 37 38 38 39 39 39 39 39 39 39
7 8 9 12 14 17 19 20 19 18 17 18 18 17 16 15 14 14 12 8 8 9 11 12 15 18 23 25 27 30 32 34 35 36 37 37 38 38 38 38 38 39 39 39
7 7 9 9 13 17 17 17 15 15 18 18 19 18 16 15 14 14 11 10 10 11 12 15 17 20 23 27 30 32 34 35 36 36 37 37 37 37 37 37 37 38 38 38
7 9 10 9 10 13 14 12 14 17 18 18 18 17 16 15 15 14 12 12 12 13 14 18 21 23 26 29 31 33 35 36 36 37 37 37 37 36 36 36 37 37 37 37
8 7 8 8 9 11 14 16 17 18 18 18 17 16 15 15 15 13 12 13 16 16 17 20 23 26 28 31 33 34 36 36 37 37 37 37 37 36 36 36 36 36 36 37
6 6 8 9 11 12 14 15 15 17 17 18 17 16 15 15 14 13 14 15 18 18 20 23 26 28 30 32 33 34 36 37 37 36 36 36 36 37 37 37 36 36 36 36
5 6 7 8 8 9 10 12 13 15 17 17 15 14 14 15 14 15 17 18 20 21 22 23 27 29 31 33 33 35 36 36 36 36 36 35 36 36 36 36 36 36 36 36
5 6 7 7 8 9 11 12 14 15 15 15 14 15 14 15 15 16 18 20 22 24 24 25 27 29 31 33 35 36 36 35 35 35 35 35 35 35 35 36 36 36 36 36
6 7 8 8 8 10 11 11 13 15 15 14 15 16 15 17 18 18 18 21 23 24 26 27 27 28 30 33 34 35 34 33 34 34 34 35 35 35 35 35 36 36 37 37
4 6 8 9 8 9 11 14 15 16 15 15 15 16 16 18 18 19 20 21 24 27 26 26 27 29 31 33 34 33 33 33 33 33 33 34 34 35 35 35 36 36 37 37

GFSNGP_700_spd_126.txt.gz
Wind_Speed
23 24 28 30 31 33 37 35 24 30 25 23 25 21 22 24 22 13 11 10 8 6 7 15 19 22 24 26 28 33 38 41 44 44 37 24 12 4 6 7 11 16 17 17
28 29 25 26 27 27 31 32 37 34 34 32 27 24 20 19 15 9 8 6 1 11 12 9 12 16 21 23 27 32 33 39 42 44 46 46 45 42 38 32 18 10 14 14
17 17 12 18 23 20 24 22 32 35 35 30 27 23 20 16 10 7 4 5 8 5 5 7 11 15 19 21 22 25 26 28 30 33 36 41 42 43 45 43 42 43 28 12
8 9 4 12 10 11 13 14 19 25 29 29 20 14 13 12 8 6 8 9 4 3 5 8 11 15 17 18 20 22 25 27 30 31 33 34 32 33 33 33 34 37 40 42
5 8 15 23 18 16 15 18 17 19 19 17 14 14 12 11 9 9 12 6 2 4 6 8 10 13 14 15 16 18 22 25 26 27 28 29 29 30 32 31 30 30 30 29
9 5 4 3 5 12 11 17 9 9 9 9 10 12 12 11 11 14 9 6 5 6 7 7 9 12 12 11 14 17 22 25 26 26 27 28 30 30 30 29 28 27 27 26
22 10 12 15 16 10 5 7 4 4 7 8 9 11 11 12 14 12 9 8 7 7 7 5 7 10 10 11 13 21 24 24 24 25 26 28 28 28 29 28 28 27 26 25
22 11 15 18 14 12 11 12 9 7 7 11 13 11 12 14 14 12 10 8 8 7 6 5 5 9 10 11 17 21 21 21 22 23 24 24 25 25 25 25 25 26 26 25
14 13 15 13 10 8 9 11 10 7 8 12 14 11 13 13 14 12 10 9 8 6 5 6 7 8 10 12 16 17 17 17 18 20 21 21 21 21 21 22 23 24 24 24
17 20 20 18 16 18 16 13 13 9 12 15 15 14 14 14 14 12 10 9 8 6 6 8 8 8 8 11 13 14 14 15 16 17 18 19 20 21 22 21 22 22 23 24
23 24 23 23 23 22 20 19 17 16 17 18 17 16 15 15 14 12 10 9 8 7 8 8 7 6 7 9 10 11 12 14 16 18 20 22 23 25 27 28 28 29 28 28
21 19 18 17 16 14 20 21 20 19 19 21 19 17 17 17 16 13 11 10 9 10 9 7 4 3 4 7 9 12 15 17 20 23 25 28 30 32 32 31 31 32 31 30
20 18 17 18 17 16 16 19 21 21 21 21 21 21 18 17 15 13 13 11 10 11 8 6 3 1 3 6 9 12 15 18 21 24 26 27 29 30 31 32 33 32 32 33
17 17 18 18 17 16 16 22 23 24 24 23 21 19 18 17 16 15 14 13 12 11 8 6 4 2 4 6 9 13 16 19 21 24 27 29 30 31 31 31 32 32 33 34
16 17 18 18 17 15 17 24 26 27 27 26 22 18 17 18 17 16 15 13 13 11 9 7 4 3 6 9 12 14 17 20 23 26 28 30 32 33 33 33 34 34 33 34
13 14 16 17 16 15 17 23 27 28 26 23 20 19 20 20 19 17 15 15 14 12 9 6 4 5 8 11 13 16 18 21 24 27 29 31 32 32 33 33 33 33 33 33
11 11 13 14 15 13 16 20 25 25 23 20 19 20 20 19 19 17 16 16 14 12 10 8 7 8 10 13 16 19 21 24 27 29 31 33 34 35 35 35 35 35 35 35
12 11 12 13 16 14 15 20 23 22 20 18 20 21 20 19 18 18 17 16 14 12 10 9 11 11 13 16 19 22 25 28 30 32 34 35 37 37 37 38 38 38 38 38
9 9 9 10 12 14 15 18 21 21 20 20 21 22 21 21 19 18 17 17 15 11 11 11 13 14 16 19 22 24 27 29 31 33 35 36 37 37 37 38 38 38 39 39
8 8 7 8 9 12 14 15 17 18 19 21 23 24 22 20 18 17 18 17 13 12 13 13 15 18 20 22 24 26 28 29 32 34 35 36 36 36 37 37 38 38 38 38
8 8 7 7 8 9 10 11 12 15 19 22 22 21 21 19 17 16 17 16 15 13 14 15 18 20 23 25 26 27 28 30 32 34 35 35 36 36 36 37 37 37 37 37
7 8 7 7 7 8 9 11 15 18 19 21 24 21 19 17 16 16 16 16 15 16 17 19 21 23 24 26 27 28 29 31 33 35 35 35 36 36 36 37 37 37 37 37
7 7 7 8 9 9 12 15 16 16 18 21 21 18 17 16 16 15 16 16 16 18 20 21 23 25 25 26 27 28 29 32 34 34 34 35 36 36 36 36 36 37 37 37
5 5 5 7 8 10 11 13 14 15 17 21 20 18 16 15 14 14 16 17 18 19 20 22 24 25 26 28 28 29 31 33 33 33 34 35 35 36 36 36 36 37 37 37
4 5 5 7 8 8 9 11 13 15 17 15 15 15 14 13 14 16 17 18 18 20 21 22 24 26 26 27 28 31 32 33 32 33 34 34 35 35 35 36 36 36 37 38
5 5 6 6 7 8 10 10 11 13 12 14 15 13 14 14 15 16 17 18 18 19 22 24 23 23 25 26 29 32 32 32 32 33 33 34 34 34 34 35 35 36 37 38
4 4 5 6 7 8 8 10 11 12 14 16 15 15 15 14 15 16 16 19 21 22 21 21 21 23 25 27 29 31 31 31 31 32 32 33 33 33 33 34 35 36 38 38

GFSNGP_700_spd_132.txt.gz
Wind_Speed
23 22 25 26 27 25 29 40 33 51 41 48 44 42 38 32 32 27 25 22 19 12 7 3 6 10 12 12 15 19 22 24 24 28 31 32 34 37 39 41 44 43 35 24
25 25 24 29 29 31 39 40 44 44 47 37 30 27 24 25 25 24 22 19 12 5 2 5 5 6 7 10 14 18 19 22 24 26 28 30 32 33 33 33 35 39 43 46
17 19 17 29 29 26 25 23 21 24 25 23 23 20 16 16 20 22 19 13 8 6 4 5 3 4 6 9 13 15 17 18 20 24 26 28 30 29 28 29 31 32 32 31
15 12 6 18 14 16 20 20 22 27 28 27 23 20 18 19 19 18 12 9 9 5 2 3 2 2 5 9 12 13 15 17 19 23 26 27 28 29 30 30 30 30 29 28
7 11 25 33 22 17 15 21 20 19 17 16 16 16 17 15 13 12 11 10 11 4 4 3 2 2 5 9 10 11 12 14 18 21 24 25 26 28 29 30 30 31 30 29
13 5 5 13 11 11 14 23 11 13 12 12 13 13 9 9 11 11 10 14 8 4 4 3 1 1 3 8 9 9 10 13 17 20 22 23 25 26 27 27 28 27 27 27
24 14 16 22 18 20 14 20 15 15 14 12 11 11 11 9 9 11 14 12 7 6 5 4 2 1 5 7 8 7 10 14 18 20 22 24 26 26 26 26 25 24 25 24
19 12 13 14 9 12 13 12 13 10 10 12 11 10 9 9 9 12 15 10 8 6 5 5 4 4 6 7 5 7 10 13 16 18 21 23 24 24 24 24 24 24 24 23
20 20 18 18 23 19 15 15 18 17 15 13 11 8 9 8 10 17 11 8 7 8 7 6 7 7 6 5 5 7 10 13 15 19 20 21 21 21 22 22 22 22 21 21
28 29 26 26 29 25 22 20 21 23 21 16 12 11 11 10 14 15 12 11 10 10 9 8 9 8 6 4 4 5 8 11 14 16 17 20 21 23 24 24 25 24 23 23
28 22 27 22 21 17 21 24 24 23 22 18 15 13 15 13 15 17 15 13 13 12 11 11 11 7 4 2 2 4 7 9 11 13 16 19 21 23 25 26 26 26 26 26
22 15 16 15 16 19 20 23 23 22 21 19 17 16 18 16 18 17 16 15 14 13 12 13 11 8 6 3 1 3 6 9 13 16 18 20 23 26 28 28 29 30 30 30
19 23 23 23 23 23 23 23 22 21 20 20 18 19 22 20 19 19 19 17 16 15 15 14 12 9 7 5 2 3 7 10 13 16 18 21 24 27 28 30 32 33 33 33
21 21 21 22 23 23 23 22 21 22 22 22 21 23 24 24 23 21 20 18 17 16 15 15 12 10 8 5 4 5 8 11 13 16 20 23 26 28 30 31 31 31 32 32
17 16 16 17 19 21 22 22 21 20 20 21 23 26 26 26 25 22 21 19 18 17 16 15 13 11 10 7 6 7 10 12 15 18 22 25 27 30 31 31 31 31 33 34
12 12 13 15 17 19 20 19 18 18 18 19 22 28 29 25 26 23 21 19 18 17 17 16 15 13 10 9 9 10 12 15 18 20 23 26 28 30 31 31 32 33 33 33
13 14 15 16 16 16 16 17 17 18 17 17 21 28 27 29 29 24 21 21 19 19 18 17 14 13 12 11 12 13 15 17 20 22 25 28 30 31 31 32 33 34 35 34
21 21 21 20 18 16 15 16 18 17 15 15 16 23 28 31 27 22 21 21 20 19 18 16 15 14 12 13 14 15 18 21 23 25 27 29 31 31 31 32 33 35 35 35
21 21 20 18 16 15 14 14 14 13 10 10 14 20 25 28 27 24 22 20 19 19 18 16 14 13 14 14 15 18 21 23 24 26 28 30 31 31 32 34 35 36 36 35
15 15 15 15 14 13 14 12 11 9 10 11 14 18 22 27 28 24 21 21 20 19 18 16 15 15 16 16 18 20 22 24 26 28 30 31 30 32 33 35 36 36 36 35
11 12 13 13 12 12 12 10 9 9 10 11 13 16 19 23 25 25 21 16 16 17 17 16 16 17 18 18 20 22 24 26 28 30 31 30 32 33 34 35 35 35 35 34
9 9 10 10 10 10 10 9 8 9 10 12 15 17 18 21 24 25 21 18 17 17 17 17 18 19 20 21 22 23 26 27 30 30 29 31 32 33 34 35 35 34 34 34
6 6 8 9 9 8 8 8 8 8 8 9 11 14 16 19 23 21 16 15 15 16 17 18 19 20 21 22 23 25 27 30 29 29 30 31 33 34 34 34 33 33 33 34
5 5 6 6 6 5 5 6 7 8 8 9 10 13 15 17 22 20 16 15 16 16 17 18 20 22 23 24 25 26 30 28 28 29 30 32 33 33 32 32 33 33 33 33
4 4 4 4 4 4 5 5 6 6 7 8 9 12 15 21 22 18 15 15 16 17 18 19 21 23 24 25 27 28 27 27 28 29 31 33 32 32 31 32 32 32 32 33
4 4 4 4 4 4 4 5 5 6 7 7 8 9 13 18 17 13 15 16 16 17 19 20 22 23 24 27 26 26 26 26 28 30 32 31 30 30 31 31 31 31 33 34
4 5 5 5 5 5 5 5 6 7 8 9 11 13 16 14 13 14 15 16 17 19 20 21 22 25 25 25 25 25 25 26 29 30 30 29 29 29 29 30 30 31 32 33

GFSNGP_700_spd_138.txt.gz
Wind_Speed
22 21 22 21 21 18 26 29 26 39 38 36 31 30 24 23 23 22 22 21 19 18 17 12 4 1 4 6 7 7 8 11 13 16 20 22 24 24 23 24 24 25 29 35
19 20 21 23 26 23 30 36 33 41 46 27 27 24 24 25 26 22 19 17 17 17 15 8 7 6 7 5 4 3 7 10 12 16 19 21 23 23 25 25 25 25 23 23
14 8 8 19 31 29 27 23 24 27 29 23 27 28 27 25 23 21 18 16 16 16 13 12 10 7 6 5 2 1 6 8 11 14 17 18 21 23 23 25 26 25 25 24
9 5 6 17 19 15 16 21 20 26 20 19 19 17 17 17 17 17 16 15 15 14 13 12 11 8 7 5 3 2 5 6 10 13 15 18 20 20 22 23 23 23 24 24
10 14 18 24 19 23 17 24 20 20 16 16 15 16 16 16 15 14 14 13 13 14 15 14 12 11 8 7 5 3 3 5 8 11 14 17 18 20 22 24 24 23 24 23
12 9 10 6 11 13 20 24 9 11 14 15 15 13 13 14 13 12 11 12 13 14 15 15 13 11 9 8 7 4 2 4 7 10 12 14 16 19 21 22 23 23 23 22
24 13 18 18 22 19 6 10 11 10 11 11 9 10 13 15 12 11 11 13 14 16 15 15 12 12 11 10 9 5 4 4 6 9 10 11 15 17 19 21 22 22 21 21
20 13 16 14 17 15 13 15 13 13 15 14 15 15 16 16 14 11 11 13 16 17 15 15 14 13 12 12 10 7 7 5 4 6 7 10 13 15 17 18 19 19 19 19
17 17 16 15 21 23 23 22 28 26 21 19 18 18 17 15 14 12 13 16 19 17 17 16 14 13 14 13 12 10 9 6 3 3 6 8 10 11 13 15 16 16 17 18
20 26 28 27 25 25 26 24 22 24 22 20 19 18 17 15 14 14 14 17 20 18 18 17 16 15 16 15 13 11 10 7 4 1 3 5 6 8 10 12 13 14 16 17
31 29 26 27 26 22 20 20 25 19 17 19 18 18 17 16 15 16 15 21 20 19 19 19 18 17 17 16 14 13 11 8 5 2 3 5 7 9 10 12 13 15 16 18
27 24 25 26 20 17 16 16 15 17 17 18 18 18 17 17 17 18 18 25 22 20 20 21 19 19 18 17 15 13 11 10 7 6 6 7 9 11 12 13 15 16 18 19
22 26 21 20 21 21 21 21 20 19 19 20 19 18 19 18 19 21 22 27 26 22 21 21 20 21 20 18 16 14 13 12 10 8 8 9 11 13 15 17 18 19 20 21
17 17 21 22 21 23 25 23 20 19 18 19 19 19 20 21 22 25 26 28 31 26 24 23 22 22 21 19 17 16 15 13 10 10 9 10 12 14 16 18 19 20 21 22
20 22 25 25 25 22 19 17 16 17 18 20 21 22 22 22 23 26 28 30 31 28 26 25 24 23 22 20 19 17 15 12 10 10 11 12 14 15 17 19 20 21 23 24
12 14 16 17 16 16 15 14 15 17 19 21 22 23 23 23 24 26 29 30 29 29 24 23 24 24 23 21 19 17 15 12 12 12 12 14 16 17 19 20 21 22 24 25
13 12 13 13 14 14 15 17 20 22 23 24 25 25 24 23 23 25 27 28 29 31 28 27 25 24 23 21 19 16 14 13 13 13 14 16 18 19 21 22 22 23 24 25
20 19 19 19 19 20 22 24 24 24 23 24 24 25 25 25 24 25 27 29 30 33 27 25 24 23 22 20 18 16 15 15 14 15 16 18 20 21 23 23 24 25 26 27
23 22 20 18 19 21 21 20 20 20 21 22 22 23 24 26 26 25 26 28 31 29 24 24 23 21 22 20 18 17 16 15 15 17 18 20 21 23 24 24 25 26 27 28
21 20 18 16 15 15 16 17 17 17 18 18 19 18 18 18 19 22 24 27 29 30 30 25 21 22 21 21 19 17 17 17 18 19 20 22 23 24 24 25 26 27 28 29
13 11 12 12 13 14 14 14 14 14 15 14 14 13 13 12 13 16 21 25 29 30 27 24 24 22 22 20 19 18 18 19 20 20 21 23 24 25 25 26 26 27 28 29
9 10 11 11 11 11 11 10 11 11 11 10 9 9 9 9 10 11 16 24 27 26 23 20 21 21 21 19 18 19 20 20 21 21 23 25 26 25 26 26 27 28 28 29
10 9 9 9 9 8 8 8 8 9 9 8 6 5 7 8 9 9 12 18 24 24 23 19 19 19 19 19 19 20 21 20 22 24 25 26 25 25 26 26 27 28 28 29
7 8 8 8 7 7 6 6 6 7 7 6 6 5 6 8 10 12 14 17 22 22 20 19 18 18 19 19 20 20 21 23 24 24 26 25 25 25 26 26 27 27 28 28
7 7 6 6 5 5 5 6 6 6 6 7 7 7 7 9 11 13 14 16 20 23 22 19 17 16 18 19 20 21 22 23 25 26 25 24 24 25 26 27 27 27 27 28
5 5 4 4 4 5 5 6 6 7 7 7 8 8 9 9 11 13 14 16 19 19 17 16 16 17 18 18 20 22 22 25 25 24 23 23 24 25 26 26 26 26 27 27
3 2 2 2 3 4 5 6 6 7 8 8 9 9 9 9 10 10 12 15 16 14 13 13 15 17 18 20 21 22 24 23 23 22 22 23 24 25 25 25 25 26 26 27

GFSNGP_700_spd_141.txt.gz
Wind_Speed
23 15 11 14 14 17 21 25 26 33 31 34 32 29 30 26 23 23 35 31 25 23 21 18 18 14 13 9 5 11 8 8 9 11 13 16 18 20 23 23 23 24 24 23
19 16 18 20 22 21 25 29 29 30 36 26 23 25 28 32 29 28 32 30 26 23 21 18 16 12 11 9 7 8 7 5 7 9 12 15 17 19 21 22 23 24 25 25
16 17 15 18 28 30 29 29 27 30 28 23 22 23 24 24 26 25 25 23 23 22 20 18 15 17 12 9 7 7 6 3 4 7 10 13 15 17 19 19 21 22 23 23
11 8 12 24 20 16 19 20 18 23 23 23 24 25 20 21 22 23 23 22 22 21 19 17 17 18 13 9 8 8 6 2 1 4 7 11 14 16 17 18 19 20 21 22
16 17 18 22 18 21 19 21 15 19 22 18 26 24 21 21 20 21 21 21 20 19 18 18 17 17 13 11 10 10 7 4 2 1 4 8 11 13 15 17 19 20 21 21
16 14 14 24 12 12 13 22 11 9 13 14 20 16 16 17 16 18 18 18 18 17 17 17 17 16 14 12 12 12 9 6 4 1 2 5 8 10 12 13 15 16 18 19
26 24 26 19 16 15 11 12 11 14 13 12 14 14 15 17 19 19 18 17 16 17 17 18 17 16 15 14 14 13 10 8 7 4 1 2 4 7 9 11 12 14 15 16
25 25 24 16 19 17 12 14 19 19 19 18 19 19 19 19 20 20 17 15 15 17 18 18 17 17 16 15 16 15 12 10 9 6 4 3 3 6 8 10 12 13 14 15
18 21 19 13 14 13 16 16 18 21 28 27 24 23 22 20 19 19 17 16 16 18 19 19 18 18 17 17 17 17 14 13 12 9 6 5 5 6 8 10 11 13 14 14
24 22 21 16 19 20 19 21 23 28 28 25 23 23 21 20 19 18 17 16 17 19 20 20 20 19 18 19 19 18 16 15 14 10 7 6 7 7 9 10 12 13 14 15
28 25 20 21 22 22 22 26 25 23 24 26 22 18 19 19 20 19 19 18 18 20 22 22 21 21 21 20 21 20 18 16 14 12 10 9 9 9 10 12 13 14 15 16
26 14 16 16 22 26 24 21 19 20 18 17 19 20 20 20 20 20 20 20 20 22 25 23 23 22 21 22 22 21 19 18 16 14 12 10 10 11 12 13 15 15 16 17
26 24 25 32 28 29 23 21 22 22 21 21 22 23 21 21 21 22 22 22 23 25 27 24 24 24 23 23 23 22 21 19 18 15 13 12 12 12 13 15 16 17 18 19
17 20 22 23 22 20 20 20 22 23 22 20 20 20 20 21 22 22 23 24 25 28 31 28 25 24 24 24 24 23 21 20 18 16 14 13 13 14 15 16 17 18 20 21
21 23 23 26 24 24 24 24 21 20 18 18 19 20 22 23 24 23 24 26 28 31 34 35 29 28 24 24 24 23 23 21 19 17 15 15 15 15 16 17 18 20 22 22
19 16 16 17 17 18 18 18 18 18 16 17 19 21 23 24 25 25 26 27 28 31 32 34 30 27 27 26 26 25 23 21 19 18 16 16 16 16 17 18 20 21 23 24
15 14 12 12 13 14 16 17 17 19 21 22 24 25 25 26 25 26 26 27 28 30 31 31 27 27 27 26 25 24 22 21 20 18 17 17 17 17 18 20 22 23 24 26
18 19 19 18 18 19 20 21 22 24 25 25 24 23 24 25 26 26 27 27 30 31 32 32 31 27 25 24 24 22 22 22 20 19 18 18 18 19 20 21 23 25 27 26
24 23 22 21 21 21 21 22 22 22 21 21 22 22 22 24 25 25 28 29 28 29 30 32 31 26 25 26 25 24 22 20 19 19 19 19 19 20 22 23 25 26 27 28
24 22 22 22 21 21 19 17 17 19 20 19 19 20 20 21 21 22 22 23 23 24 26 28 26 25 27 26 23 22 20 20 21 19 19 20 22 23 23 25 27 27 28 28
18 19 18 18 16 15 15 16 17 17 17 17 17 17 17 17 16 16 16 17 19 20 26 30 31 30 28 23 24 24 19 20 21 21 22 23 23 24 26 27 28 28 28 28
14 14 13 13 13 12 13 14 14 14 14 14 14 14 14 13 12 12 12 12 14 20 26 26 27 27 24 24 23 19 20 21 21 22 22 23 24 26 28 29 28 28 28 28
12 12 12 11 10 12 12 12 12 12 11 11 11 11 10 11 11 10 9 9 14 18 21 24 25 22 21 20 16 19 21 21 22 22 23 25 26 28 29 28 27 27 28 28
11 10 9 9 10 11 10 10 10 9 9 9 9 8 8 9 10 10 9 10 11 15 20 22 21 19 17 18 20 21 22 20 21 24 24 26 28 29 28 26 26 27 27 27
9 8 8 9 9 8 8 8 9 8 9 8 8 8 8 9 9 9 10 11 12 15 18 22 21 20 19 19 20 19 20 22 23 23 26 28 28 27 26 25 26 27 27 27
7 7 8 8 8 7 8 8 8 8 8 9 9 9 9 10 10 10 11 12 13 14 16 18 19 19 19 19 19 20 20 20 23 25 27 26 25 24 24 25 25 26 26 27
6 7 7 6 6 6 7 7 7 8 8 9 9 10 10 10 10 10 10 11 12 13 15 17 17 16 15 15 17 19 21 23 25 25 24 24 24 23 23 24 25 26 26 26

GFSNGP_700_spd_147.txt.gz
Wind_Speed
24 24 21 24 28 35 30 26 22 30 32 34 26 26 27 27 26 27 28 27 31 32 25 26 26 25 23 21 19 16 15 16 15 13 13 11 10 11 12 13 14 17 19 20
26 22 14 17 26 26 30 29 26 26 30 26 24 28 25 20 21 26 30 33 34 26 23 23 25 23 21 19 17 14 16 17 15 13 11 10 8 8 10 12 14 16 17 18
24 28 13 16 45 28 29 33 29 29 36 27 26 27 26 24 26 26 31 34 34 27 25 24 23 21 19 18 16 15 15 15 13 12 10 10 8 6 7 9 12 14 15 17
13 12 10 39 31 32 32 32 30 32 34 33 29 21 22 22 24 28 32 32 27 23 22 22 21 20 17 17 17 17 15 14 12 11 10 9 8 6 7 9 11 12 14 16
10 15 21 21 11 16 23 24 19 18 17 17 23 24 23 23 26 27 26 23 22 21 22 21 20 16 15 17 16 16 15 14 13 12 11 9 9 7 7 7 9 11 13 15
17 8 8 22 18 22 15 31 20 19 18 20 24 23 25 22 21 21 22 22 21 23 23 20 18 16 14 14 15 16 15 14 14 13 12 10 9 8 7 7 7 10 12 13
28 10 12 22 4 8 16 18 15 19 18 21 22 19 21 21 21 24 25 24 22 22 21 19 17 15 15 15 15 15 16 16 16 15 14 12 10 9 8 7 7 8 10 12
26 15 10 12 14 20 19 16 20 19 19 19 20 20 20 20 23 21 20 22 22 21 19 17 16 15 14 16 16 16 17 17 17 16 16 14 12 10 10 9 8 8 10 11
10 12 14 10 11 10 18 20 23 24 22 20 19 20 22 23 21 19 19 19 20 20 18 17 16 15 15 17 18 18 17 17 18 18 16 14 14 12 12 11 9 9 10 11
15 19 15 12 12 15 19 16 19 21 22 22 24 22 23 21 20 18 18 17 19 20 18 17 16 16 16 18 19 20 18 18 19 18 17 16 16 14 13 12 11 11 11 12
25 25 20 14 17 26 23 24 20 21 23 23 29 27 21 19 17 14 16 17 18 19 19 18 18 17 18 19 20 20 19 19 19 18 18 18 17 16 15 14 13 13 13 14
26 22 23 20 27 28 26 22 23 24 28 31 30 24 19 19 19 19 19 19 19 19 18 18 17 18 19 20 21 21 21 21 20 19 19 19 19 18 17 16 15 14 15 15
24 22 23 25 28 26 24 27 28 25 29 30 26 21 19 20 24 23 21 18 16 17 17 18 17 18 19 21 22 22 22 22 21 20 22 21 20 19 18 18 17 16 16 16
31 28 31 31 30 31 33 33 34 29 26 24 23 22 21 20 19 17 14 14 16 17 18 19 19 18 20 23 24 23 24 22 23 22 22 21 21 20 20 18 17 17 18 16
21 23 26 25 27 30 31 27 26 25 24 23 23 25 22 18 16 17 16 17 20 21 20 19 20 19 21 24 26 26 23 23 24 23 21 23 22 21 20 19 17 17 18 17
23 27 24 25 22 24 24 23 20 19 19 20 21 20 19 18 17 20 21 22 22 22 22 20 19 18 21 24 26 25 26 26 21 23 24 22 21 21 20 20 18 17 18 19
21 20 21 24 27 24 21 18 17 16 16 16 14 16 18 20 22 23 24 22 21 22 23 22 19 19 22 23 25 27 27 25 28 25 22 21 21 19 19 19 17 16 18 21
21 19 20 22 24 22 21 16 16 16 17 18 19 20 22 23 24 22 21 21 22 23 23 22 22 21 23 24 25 26 26 26 23 26 22 22 21 21 19 19 18 21 21 22
29 21 20 22 21 20 18 17 17 19 20 21 21 21 21 20 20 21 20 21 22 22 22 22 23 23 23 23 23 25 27 24 24 21 22 18 18 18 18 23 23 21 22 24
23 23 19 17 19 20 21 21 21 21 22 22 19 18 19 20 19 19 19 20 21 19 19 19 20 20 19 20 19 23 22 23 21 20 24 23 21 18 20 22 22 26 25 24
22 21 20 19 22 23 22 21 21 21 19 17 16 17 17 17 17 17 17 17 16 16 16 16 15 13 14 14 17 20 22 24 22 22 21 19 21 23 25 25 26 24 24 26
19 17 16 19 18 18 18 18 16 15 15 15 15 15 15 14 13 14 14 12 13 13 12 10 9 9 11 12 14 18 21 20 21 24 25 25 26 27 22 23 23 23 25 25
16 16 16 15 15 14 13 13 13 13 13 13 12 12 12 10 10 10 9 11 10 9 9 8 8 8 8 10 14 16 17 17 19 20 21 24 21 19 22 21 23 23 24 27
12 13 13 12 12 11 11 11 11 10 10 10 10 9 8 7 7 8 9 9 8 8 8 8 8 8 9 9 10 12 15 17 19 20 21 19 19 20 19 22 22 23 25 26
10 10 10 9 9 9 9 8 8 8 8 8 7 7 7 7 7 9 9 8 8 7 8 8 8 8 8 8 10 14 16 18 18 18 17 18 18 21 21 21 24 23 23 24
8 8 8 7 7 6 6 6 6 6 6 6 6 6 6 6 7 8 8 8 7 7 9 9 9 7 6 8 10 13 13 14 14 15 17 18 19 19 20 21 23 23 23 23
6 6 6 5 5 5 4 4 4 4 5 6 7 8 8 8 9 9 10 8 7 8 9 9 8 6 7 9 9 10 12 13 14 16 17 18 18 19 21 21 21 22 23 23

GFSNGP_700_spd_150.txt.gz
Wind_Speed
18 28 17 19 18 23 28 28 25 32 34 29 24 23 18 19 19 24 21 22 21 22 24 27 24 25 26 26 25 23 21 22 19 16 15 15 15 15 13 12 12 13 15 17
21 16 19 23 28 33 31 31 29 30 36 27 26 29 26 29 25 30 27 21 21 22 26 24 23 24 26 25 22 20 19 19 17 16 15 14 13 13 12 11 11 12 14 15
23 26 20 15 34 24 25 29 30 31 34 29 30 27 31 30 28 26 22 20 22 25 25 21 21 22 24 22 20 19 19 16 17 15 15 13 11 11 10 10 11 11 13 14
20 17 8 32 32 29 27 35 34 39 41 38 31 31 28 27 24 20 19 22 24 23 19 17 18 20 21 20 18 18 18 17 16 14 14 12 11 9 9 9 9 10 11 12
9 17 14 22 26 24 23 36 36 37 30 23 20 17 17 17 17 17 20 22 22 21 18 18 19 20 20 17 16 17 17 17 16 14 14 13 12 10 8 8 8 9 10 11
13 7 7 31 22 10 11 32 16 17 17 19 19 21 21 20 21 20 20 20 22 21 20 20 20 19 18 16 16 16 16 17 16 15 14 13 12 11 10 9 8 8 9 10
31 13 17 23 11 8 23 25 13 20 20 21 22 21 20 21 18 20 21 22 21 21 21 20 19 17 16 15 15 15 16 17 16 16 16 16 14 12 11 10 10 10 10 10
26 14 13 9 26 27 18 22 19 15 17 20 17 16 20 20 20 21 20 19 19 18 19 18 17 17 15 15 15 15 17 17 16 17 16 15 15 14 12 11 11 11 11 10
22 16 11 15 11 20 25 23 22 19 18 17 17 19 21 20 21 20 20 20 19 18 17 16 16 16 16 15 15 16 17 18 17 17 15 15 16 15 14 13 13 13 12 12
18 18 12 11 13 13 13 15 20 21 18 18 19 19 20 21 22 21 19 19 17 15 14 15 16 16 17 16 16 17 18 19 18 16 17 18 17 16 15 15 15 14 13 13
23 19 16 19 16 12 15 17 17 23 23 24 20 19 23 26 23 19 17 16 15 14 16 17 17 16 16 17 17 18 19 19 18 17 19 18 18 17 16 17 17 16 15 14
24 24 24 24 24 21 24 22 20 24 24 21 20 23 26 25 21 18 18 19 18 18 19 19 18 17 17 17 18 19 19 19 19 18 19 19 19 17 18 19 18 18 17 16
22 23 21 18 20 25 24 25 24 21 18 21 20 25 24 22 19 18 21 20 18 19 18 18 17 18 18 18 19 19 20 21 20 19 20 20 18 19 21 20 20 19 18 17
26 25 27 25 25 24 24 24 23 25 28 30 30 26 22 20 20 19 17 16 16 16 17 18 19 19 19 19 20 21 23 22 21 21 21 20 19 21 22 21 20 21 19 18
29 27 28 28 27 25 25 26 25 26 26 24 24 24 22 22 21 17 16 16 16 16 18 20 20 19 20 21 21 23 25 24 22 22 21 21 22 22 21 21 20 21 20 18
18 29 26 24 23 23 23 23 21 19 21 23 23 21 20 21 17 17 17 18 18 19 20 19 17 18 20 21 21 24 25 25 24 24 23 24 22 22 22 22 19 20 20 18
17 20 21 26 27 28 28 24 19 18 17 17 17 16 17 17 18 19 20 21 21 19 20 19 18 19 20 21 23 23 23 25 24 24 25 23 21 22 20 17 17 19 20 18
18 18 16 22 27 28 26 21 19 16 16 18 18 19 19 20 21 22 23 21 20 22 21 19 19 19 19 22 23 23 23 25 27 28 28 25 23 21 22 20 20 18 18 20
22 23 22 24 21 20 20 20 18 18 19 20 21 20 20 20 21 20 19 20 21 22 21 21 20 20 20 21 21 21 21 21 23 25 24 20 21 19 18 18 19 22 24 22
19 17 14 22 13 13 18 19 20 21 22 22 22 21 21 18 18 18 18 19 20 20 20 20 20 20 19 19 18 17 17 17 19 22 21 21 20 22 20 21 20 21 23 25
11 16 15 15 19 13 17 22 24 23 22 21 20 19 17 18 18 17 17 17 18 19 19 18 17 17 16 15 14 15 15 15 18 20 20 19 20 21 21 22 24 26 27 27
15 16 17 18 17 16 18 21 21 20 18 16 15 15 15 15 15 15 15 15 16 15 14 13 14 14 15 13 13 13 12 14 15 17 19 21 23 24 24 23 26 26 24 22
17 20 20 17 17 17 17 16 15 13 13 13 13 12 13 12 12 12 13 12 12 11 11 12 13 13 12 11 11 10 10 12 14 14 15 18 21 21 22 23 22 21 22 22
12 14 14 15 14 13 12 12 11 11 11 10 10 10 9 9 9 10 9 9 9 9 10 10 11 11 10 9 8 8 8 9 11 14 17 18 18 18 19 20 20 21 21 22
8 9 9 9 9 9 9 9 9 8 8 8 8 7 7 8 8 8 8 8 8 8 9 9 10 9 8 8 8 8 9 10 12 14 15 15 16 17 18 18 20 20 20 21
7 7 7 7 7 7 7 7 7 7 6 6 6 6 6 7 7 7 7 7 8 9 9 8 8 8 8 9 9 8 9 10 12 12 13 14 15 17 18 19 20 19 21 22
6 6 6 6 6 6 5 6 5 5 5 5 6 6 7 8 8 8 7 7 9 10 9 8 7 8 10 9 8 9 9 10 11 12 12 15 16 18 19 19 20 21 21 21